Time,TemperatureF,DewpointF,PressureIn,WindDirection,WindDirectionDegrees,WindSpeedMPH,WindSpeedGustMPH,Humidity,HourlyPrecipIn,Conditions,Clouds,dailyrainin,SoftwareType,DateUTC
2013-09-19 00:00:00,65.5,59.9,30.23,ENE,73,0.0,0.0,82,0.00,CLR,,0.00,WeatherDisplay:10.37,2013-09-19 04:00:00,
2013-09-19 00:01:00,65.2,59.6,30.23,ENE,73,0.0,0.0,82,0.00,CLR,,0.00,WeatherDisplay:10.37,2013-09-19 04:01:00,
2013-09-19 00:02:00,65.6,60.0,30.24,ENE,73,0.0,0.0,82,0.00,CLR,,0.00,WeatherDisplay:10.37,2013-09-19 04:02:00,
2013-09-19 00:06:00,65.7,60.1,30.23,ENE,73,0.0,0.0,82,0.00,CLR,,0.00,WeatherDisplay:10.37,2013-09-19 04:06:00,
2013-09-19 00:07:00,65.6,60.0,30.23,ENE,73,0.0,0.0,82,0.00,CLR,,0.00,WeatherDisplay:10.37,2013-09-19 04:07:00,
2013-09-19 00:08:00,65.3,59.7,30.23,ENE,73,0.0,0.0,82,0.00,CLR,,0.00,WeatherDisplay:10.37,2013-09-19 04:08:00,
2013-09-19 00:11:00,65.0,59.4,30.23,ENE,73,0.0,0.0,82,0.00,CLR,,0.00,WeatherDisplay:10.37,2013-09-19 04:11:00,
2013-09-19 00:12:00,65.6,60.0,30.23,ENE,73,0.0,0.0,82,0.00,CLR,,0.00,WeatherDisplay:10.37,2013-09-19 04:12:00,
2013-09-19 00:13:00,65.4,59.8,30.23,ENE,73,0.0,0.0,82,0.00,CLR,,0.00,WeatherDisplay:10.37,2013-09-19 04:13:00,
2013-09-19 00:16:00,65.3,59.7,30.23,ENE,73,0.0,0.0,82,0.00,CLR,,0.00,WeatherDisplay:10.37,2013-09-19 04:16:00,
2013-09-19 00:17:00,65.1,59.5,30.23,ENE,73,0.0,0.0,82,0.00,CLR,,0.00,WeatherDisplay:10.37,2013-09-19 04:17:00,
2013-09-19 00:18:00,65.6,60.0,30.23,ENE,73,0.0,0.0,82,0.00,CLR,,0.00,WeatherDisplay:10.37,2013-09-19 04:18:00,
2013-09-19 00:21:00,65.5,59.9,30.23,ENE,73,0.0,0.0,82,0.00,CLR,,0.00,WeatherDisplay:10.37,2013-09-19 04:21:00,
2013-09-19 00:22:00,65.3,59.7,30.23,ENE,73,0.0,0.0,82,0.00,CLR,,0.00,WeatherDisplay:10.37,2013-09-19 04:22:00,
2013-09-19 00:24:00,65.4,59.8,30.23,ENE,73,0.0,0.0,82,0.00,CLR,,0.00,WeatherDisplay:10.37,2013-09-19 04:24:00,
2013-09-19 00:26:00,65.4,59.8,30.23,ENE,73,0.0,0.0,82,0.00,CLR,,0.00,WeatherDisplay:10.37,2013-09-19 04:26:00,
2013-09-19 00:27:00,65.0,59.4,30.23,ENE,73,0.0,0.0,82,0.00,CLR,,0.00,WeatherDisplay:10.37,2013-09-19 04:27:00,
2013-09-19 00:29:00,65.2,59.6,30.23,ENE,73,0.0,0.0,82,0.00,CLR,,0.00,WeatherDisplay:10.37,2013-09-19 04:29:00,
2013-09-19 00:31:00,65.3,59.7,30.23,ENE,73,0.0,0.0,82,0.00,CLR,,0.00,WeatherDisplay:10.37,2013-09-19 04:31:00,
2013-09-19 00:32:00,65.3,59.7,30.23,ENE,73,0.0,0.0,82,0.00,CLR,,0.00,WeatherDisplay:10.37,2013-09-19 04:32:00,
2013-09-19 00:33:00,65.6,60.0,30.23,ENE,73,0.0,0.0,82,0.00,CLR,,0.00,WeatherDisplay:10.37,2013-09-19 04:33:00,
2013-09-19 00:34:00,65.4,59.8,30.23,ENE,73,0.0,0.0,82,0.00,CLR,,0.00,WeatherDisplay:10.37,2013-09-19 04:34:00,
2013-09-19 00:37:00,65.5,59.9,30.23,ENE,73,0.0,0.0,82,0.00,CLR,,0.00,WeatherDisplay:10.37,2013-09-19 04:37:00,
2013-09-19 00:38:00,65.4,60.1,30.23,ENE,73,0.0,0.0,83,0.00,CLR,,0.00,WeatherDisplay:10.37,2013-09-19 04:38:00,
2013-09-19 00:39:00,65.1,59.8,30.24,ENE,73,0.0,0.0,83,0.00,CLR,,0.00,WeatherDisplay:10.37,2013-09-19 04:39:00,
2013-09-19 00:42:00,65.3,60.0,30.24,ENE,73,0.0,0.0,83,0.00,CLR,,0.00,WeatherDisplay:10.37,2013-09-19 04:42:00,
2013-09-19 00:44:00,65.2,59.9,30.24,ENE,73,0.0,0.0,83,0.00,CLR,,0.00,WeatherDisplay:10.37,2013-09-19 04:44:00,
2013-09-19 00:45:00,65.0,59.7,30.23,ENE,73,0.0,0.0,83,0.00,CLR,,0.00,WeatherDisplay:10.37,2013-09-19 04:45:00,
2013-09-19 00:47:00,65.6,60.3,30.23,ENE,73,0.0,0.0,83,0.00,CLR,,0.00,WeatherDisplay:10.37,2013-09-19 04:47:00,
2013-09-19 00:49:00,65.3,60.0,30.23,ENE,73,0.0,0.0,83,0.00,CLR,,0.00,WeatherDisplay:10.37,2013-09-19 04:49:00,
2013-09-19 00:50:00,65.7,60.4,30.23,ENE,73,0.0,0.0,83,0.00,CLR,,0.00,WeatherDisplay:10.37,2013-09-19 04:50:00,
2013-09-19 00:52:00,65.4,60.1,30.23,ENE,73,0.0,0.0,83,0.00,CLR,,0.00,WeatherDisplay:10.37,2013-09-19 04:52:00,
2013-09-19 00:54:00,65.6,60.3,30.23,ENE,73,0.0,0.0,83,0.00,CLR,,0.00,WeatherDisplay:10.37,2013-09-19 04:54:00,
2013-09-19 00:55:00,65.1,59.8,30.23,ENE,73,0.0,0.0,83,0.00,CLR,,0.00,WeatherDisplay:10.37,2013-09-19 04:55:00,
2013-09-19 00:57:00,65.2,59.9,30.23,ENE,73,0.0,0.0,83,0.00,CLR,,0.00,WeatherDisplay:10.37,2013-09-19 04:57:00,
2013-09-19 00:58:00,65.0,59.7,30.23,ENE,73,0.0,0.0,83,0.00,CLR,,0.00,WeatherDisplay:10.37,2013-09-19 04:58:00,
2013-09-19 00:59:00,65.1,59.8,30.23,ENE,73,0.0,0.0,83,0.00,CLR,,0.00,WeatherDisplay:10.37,2013-09-19 04:59:00,
2013-09-19 01:00:00,64.9,59.6,30.22,ENE,73,0.0,0.0,83,0.00,CLR,,0.00,WeatherDisplay:10.37,2013-09-19 05:00:00,
2013-09-19 01:02:00,65.0,59.7,30.23,ENE,73,0.0,0.0,83,0.00,CLR,,0.00,WeatherDisplay:10.37,2013-09-19 05:02:00,
2013-09-19 01:03:00,65.1,59.8,30.22,ENE,73,0.0,0.0,83,0.00,CLR,,0.00,WeatherDisplay:10.37,2013-09-19 05:03:00,
2013-09-19 01:05:00,65.0,59.7,30.23,ENE,73,0.0,0.0,83,0.00,CLR,,0.00,WeatherDisplay:10.37,2013-09-19 05:05:00,
2013-09-19 01:08:00,65.1,60.1,30.22,ENE,73,0.0,0.0,84,0.00,CLR,,0.00,WeatherDisplay:10.37,2013-09-19 05:08:00,
2013-09-19 01:09:00,64.7,59.8,30.22,ENE,73,0.0,0.0,84,0.00,CLR,,0.00,WeatherDisplay:10.37,2013-09-19 05:09:00,
2013-09-19 01:10:00,65.0,60.0,30.22,ENE,73,0.0,0.0,84,0.00,CLR,,0.00,WeatherDisplay:10.37,2013-09-19 05:10:00,
2013-09-19 01:11:00,64.9,59.9,30.22,ENE,73,0.0,0.0,84,0.00,CLR,,0.00,WeatherDisplay:10.37,2013-09-19 05:11:00,
2013-09-19 01:13:00,65.3,60.3,30.22,ENE,73,0.0,0.0,84,0.00,CLR,,0.00,WeatherDisplay:10.37,2013-09-19 05:13:00,
2013-09-19 01:14:00,65.1,60.1,30.22,ENE,73,0.0,0.0,84,0.00,CLR,,0.00,WeatherDisplay:10.37,2013-09-19 05:14:00,
2013-09-19 01:15:00,65.2,60.2,30.22,ENE,73,0.0,0.0,84,0.00,CLR,,0.00,WeatherDisplay:10.37,2013-09-19 05:15:00,
2013-09-19 01:16:00,65.0,60.0,30.22,ENE,73,0.0,0.0,84,0.00,CLR,,0.00,WeatherDisplay:10.37,2013-09-19 05:16:00,
2013-09-19 01:18:00,64.8,59.9,30.22,ENE,73,0.0,0.0,84,0.00,CLR,,0.00,WeatherDisplay:10.37,2013-09-19 05:18:00,
2013-09-19 01:19:00,65.1,60.1,30.22,ENE,73,0.0,0.0,84,0.00,CLR,,0.00,WeatherDisplay:10.37,2013-09-19 05:19:00,
2013-09-19 01:21:00,65.2,60.2,30.22,ENE,73,0.0,0.0,84,0.00,CLR,,0.00,WeatherDisplay:10.37,2013-09-19 05:21:00,
2013-09-19 01:23:00,64.7,59.8,30.22,ENE,73,0.0,0.0,84,0.00,CLR,,0.00,WeatherDisplay:10.37,2013-09-19 05:23:00,
2013-09-19 01:24:00,65.2,60.2,30.22,ENE,73,0.0,0.0,84,0.00,CLR,,0.00,WeatherDisplay:10.37,2013-09-19 05:24:00,
2013-09-19 01:26:00,65.1,60.1,30.22,ENE,73,0.0,0.0,84,0.00,CLR,,0.00,WeatherDisplay:10.37,2013-09-19 05:26:00,
2013-09-19 01:28:00,65.3,60.3,30.22,ENE,73,0.0,0.0,84,0.00,CLR,,0.00,WeatherDisplay:10.37,2013-09-19 05:28:00,
2013-09-19 01:29:00,64.9,59.9,30.22,ENE,73,0.0,0.0,84,0.00,CLR,,0.00,WeatherDisplay:10.37,2013-09-19 05:29:00,
2013-09-19 01:31:00,65.0,60.0,30.22,ENE,73,0.0,0.0,84,0.00,CLR,,0.00,WeatherDisplay:10.37,2013-09-19 05:31:00,
2013-09-19 01:33:00,65.0,60.0,30.22,ENE,73,0.0,0.0,84,0.00,CLR,,0.00,WeatherDisplay:10.37,2013-09-19 05:33:00,
2013-09-19 01:34:00,64.8,59.9,30.22,ENE,73,0.0,0.0,84,0.00,CLR,,0.00,WeatherDisplay:10.37,2013-09-19 05:34:00,
2013-09-19 01:36:00,65.0,60.0,30.22,ENE,73,0.0,0.0,84,0.00,CLR,,0.00,WeatherDisplay:10.37,2013-09-19 05:36:00,
2013-09-19 01:37:00,65.4,60.4,30.22,ENE,73,0.0,0.0,84,0.00,CLR,,0.00,WeatherDisplay:10.37,2013-09-19 05:37:00,
2013-09-19 01:38:00,64.9,59.9,30.22,ENE,73,0.0,0.0,84,0.00,CLR,,0.00,WeatherDisplay:10.37,2013-09-19 05:38:00,
2013-09-19 01:39:00,64.9,59.9,30.22,ENE,73,0.0,0.0,84,0.00,CLR,,0.00,WeatherDisplay:10.37,2013-09-19 05:39:00,
2013-09-19 01:41:00,64.9,59.9,30.22,ENE,73,0.0,0.0,84,0.00,CLR,,0.00,WeatherDisplay:10.37,2013-09-19 05:41:00,
2013-09-19 01:42:00,65.2,60.2,30.22,ENE,73,0.0,0.0,84,0.00,CLR,,0.00,WeatherDisplay:10.37,2013-09-19 05:42:00,
2013-09-19 01:43:00,64.9,60.3,30.22,ENE,73,0.0,0.0,85,0.00,CLR,,0.00,WeatherDisplay:10.37,2013-09-19 05:43:00,
2013-09-19 01:44:00,65.2,60.6,30.22,ENE,73,0.0,0.0,85,0.00,CLR,,0.00,WeatherDisplay:10.37,2013-09-19 05:44:00,
2013-09-19 01:46:00,65.2,60.6,30.22,ENE,73,0.0,0.0,85,0.00,CLR,,0.00,WeatherDisplay:10.37,2013-09-19 05:46:00,
2013-09-19 01:47:00,64.9,60.3,30.22,ENE,73,0.0,0.0,85,0.00,CLR,,0.00,WeatherDisplay:10.37,2013-09-19 05:47:00,
2013-09-19 01:48:00,64.9,60.3,30.22,ENE,73,0.0,0.0,85,0.00,CLR,,0.00,WeatherDisplay:10.37,2013-09-19 05:48:00,
2013-09-19 01:49:00,65.2,60.6,30.22,ENE,73,0.0,0.0,85,0.00,CLR,,0.00,WeatherDisplay:10.37,2013-09-19 05:49:00,
2013-09-19 01:51:00,65.0,60.4,30.22,ENE,73,0.0,0.0,85,0.00,CLR,,0.00,WeatherDisplay:10.37,2013-09-19 05:51:00,
2013-09-19 01:52:00,65.0,60.4,30.22,ENE,73,0.0,0.0,85,0.00,CLR,,0.00,WeatherDisplay:10.37,2013-09-19 05:52:00,
2013-09-19 01:53:00,65.0,60.4,30.22,ENE,73,0.0,0.0,85,0.00,CLR,,0.00,WeatherDisplay:10.37,2013-09-19 05:53:00,
2013-09-19 01:54:00,64.7,60.1,30.22,ENE,73,0.0,0.0,85,0.00,CLR,,0.00,WeatherDisplay:10.37,2013-09-19 05:54:00,
2013-09-19 01:56:00,65.0,60.4,30.22,ENE,73,0.0,0.0,85,0.00,CLR,,0.00,WeatherDisplay:10.37,2013-09-19 05:56:00,
2013-09-19 01:57:00,64.7,60.1,30.22,ENE,73,0.0,0.0,85,0.00,CLR,,0.00,WeatherDisplay:10.37,2013-09-19 05:57:00,
2013-09-19 01:58:00,64.9,60.3,30.22,ENE,73,0.0,0.0,85,0.00,CLR,,0.00,WeatherDisplay:10.37,2013-09-19 05:58:00,
2013-09-19 01:59:00,65.3,60.7,30.22,ENE,73,0.0,0.0,85,0.00,CLR,,0.00,WeatherDisplay:10.37,2013-09-19 05:59:00,
2013-09-19 02:01:00,65.1,60.5,30.22,ENE,73,0.0,0.0,85,0.00,CLR,,0.00,WeatherDisplay:10.37,2013-09-19 06:01:00,
2013-09-19 02:02:00,64.8,60.2,30.22,ENE,73,0.0,0.0,85,0.00,CLR,,0.00,WeatherDisplay:10.37,2013-09-19 06:02:00,
2013-09-19 02:03:00,65.0,60.4,30.22,ENE,73,0.0,0.0,85,0.00,CLR,,0.00,WeatherDisplay:10.37,2013-09-19 06:03:00,
2013-09-19 02:05:00,65.0,60.4,30.22,ENE,73,0.0,0.0,85,0.00,CLR,,0.00,WeatherDisplay:10.37,2013-09-19 06:05:00,
2013-09-19 02:07:00,64.9,60.3,30.22,ENE,73,0.0,0.0,85,0.00,CLR,,0.00,WeatherDisplay:10.37,2013-09-19 06:07:00,
2013-09-19 02:08:00,64.9,60.3,30.22,ENE,73,0.0,0.0,85,0.00,CLR,,0.00,WeatherDisplay:10.37,2013-09-19 06:08:00,
2013-09-19 02:09:00,64.7,60.1,30.22,ENE,73,0.0,0.0,85,0.00,CLR,,0.00,WeatherDisplay:10.37,2013-09-19 06:09:00,
2013-09-19 02:10:00,64.7,60.1,30.22,ENE,73,0.0,0.0,85,0.00,CLR,,0.00,WeatherDisplay:10.37,2013-09-19 06:10:00,
2013-09-19 02:12:00,65.2,60.6,30.22,ENE,73,0.0,0.0,85,0.00,CLR,,0.00,WeatherDisplay:10.37,2013-09-19 06:12:00,
2013-09-19 02:13:00,64.9,60.3,30.22,ENE,73,0.0,0.0,85,0.00,CLR,,0.00,WeatherDisplay:10.37,2013-09-19 06:13:00,
2013-09-19 02:14:00,64.9,60.3,30.22,ENE,73,0.0,0.0,85,0.00,CLR,,0.00,WeatherDisplay:10.37,2013-09-19 06:14:00,
2013-09-19 02:15:00,64.8,60.2,30.22,ENE,73,0.0,0.0,85,0.00,CLR,,0.00,WeatherDisplay:10.37,2013-09-19 06:15:00,
2013-09-19 02:18:00,64.9,60.3,30.22,ENE,73,0.0,0.0,85,0.00,CLR,,0.00,WeatherDisplay:10.37,2013-09-19 06:18:00,
2013-09-19 02:19:00,64.9,60.3,30.22,ENE,73,0.0,0.0,85,0.00,CLR,,0.00,WeatherDisplay:10.37,2013-09-19 06:19:00,
2013-09-19 02:21:00,64.6,60.0,30.22,ENE,73,0.0,0.0,85,0.00,CLR,,0.00,WeatherDisplay:10.37,2013-09-19 06:21:00,
2013-09-19 02:23:00,64.7,60.1,30.22,ENE,73,0.0,0.0,85,0.00,CLR,,0.00,WeatherDisplay:10.37,2013-09-19 06:23:00,
2013-09-19 02:24:00,65.0,60.4,30.22,ENE,73,0.0,0.0,85,0.00,CLR,,0.00,WeatherDisplay:10.37,2013-09-19 06:24:00,
2013-09-19 02:25:00,65.1,60.5,30.22,ENE,73,0.0,0.0,85,0.00,CLR,,0.00,WeatherDisplay:10.37,2013-09-19 06:25:00,
2013-09-19 02:26:00,64.7,60.1,30.22,ENE,73,0.0,0.0,85,0.00,CLR,,0.00,WeatherDisplay:10.37,2013-09-19 06:26:00,
2013-09-19 02:28:00,64.7,60.1,30.22,ENE,73,0.0,0.0,85,0.00,CLR,,0.00,WeatherDisplay:10.37,2013-09-19 06:28:00,
2013-09-19 02:29:00,65.0,60.4,30.22,ENE,73,0.0,0.0,85,0.00,CLR,,0.00,WeatherDisplay:10.37,2013-09-19 06:29:00,
2013-09-19 02:30:00,65.0,60.4,30.22,ENE,73,0.0,0.0,85,0.00,CLR,,0.00,WeatherDisplay:10.37,2013-09-19 06:30:00,
2013-09-19 02:31:00,64.9,60.3,30.22,ENE,73,0.0,0.0,85,0.00,CLR,,0.00,WeatherDisplay:10.37,2013-09-19 06:31:00,
2013-09-19 02:33:00,64.9,60.3,30.22,ENE,73,0.0,0.0,85,0.00,CLR,,0.00,WeatherDisplay:10.37,2013-09-19 06:33:00,
2013-09-19 02:34:00,64.8,60.2,30.22,ENE,73,0.0,0.0,85,0.00,CLR,,0.00,WeatherDisplay:10.37,2013-09-19 06:34:00,
2013-09-19 02:35:00,64.7,60.1,30.22,ENE,73,0.0,0.0,85,0.00,CLR,,0.00,WeatherDisplay:10.37,2013-09-19 06:35:00,
2013-09-19 02:36:00,64.5,59.9,30.21,ENE,73,0.0,0.0,85,0.00,CLR,,0.00,WeatherDisplay:10.37,2013-09-19 06:36:00,
2013-09-19 02:39:00,64.9,60.3,30.22,ENE,73,0.0,0.0,85,0.00,CLR,,0.00,WeatherDisplay:10.37,2013-09-19 06:39:00,
2013-09-19 02:40:00,64.7,60.1,30.22,ENE,73,0.0,0.0,85,0.00,CLR,,0.00,WeatherDisplay:10.37,2013-09-19 06:40:00,
2013-09-19 02:41:00,64.3,59.7,30.22,ENE,73,0.0,0.0,85,0.00,CLR,,0.00,WeatherDisplay:10.37,2013-09-19 06:41:00,
2013-09-19 02:44:00,64.6,60.0,30.22,ENE,73,0.0,0.0,85,0.00,CLR,,0.00,WeatherDisplay:10.37,2013-09-19 06:44:00,
2013-09-19 02:45:00,64.6,60.0,30.22,ENE,73,0.0,0.0,85,0.00,CLR,,0.00,WeatherDisplay:10.37,2013-09-19 06:45:00,
2013-09-19 02:46:00,64.6,60.0,30.21,ENE,73,0.0,0.0,85,0.00,CLR,,0.00,WeatherDisplay:10.37,2013-09-19 06:46:00,
2013-09-19 02:49:00,64.8,60.2,30.21,ENE,73,0.0,0.0,85,0.00,CLR,,0.00,WeatherDisplay:10.37,2013-09-19 06:49:00,
2013-09-19 02:50:00,64.4,59.8,30.21,ENE,73,0.0,0.0,85,0.00,CLR,,0.00,WeatherDisplay:10.37,2013-09-19 06:50:00,
2013-09-19 02:51:00,64.9,60.3,30.21,ENE,73,0.0,0.0,85,0.00,CLR,,0.00,WeatherDisplay:10.37,2013-09-19 06:51:00,
2013-09-19 02:54:00,64.7,60.1,30.21,ENE,73,0.0,0.0,85,0.00,CLR,,0.00,WeatherDisplay:10.37,2013-09-19 06:54:00,
2013-09-19 02:55:00,64.8,60.2,30.21,ENE,73,0.0,0.0,85,0.00,CLR,,0.00,WeatherDisplay:10.37,2013-09-19 06:55:00,
2013-09-19 02:56:00,64.6,60.0,30.21,ENE,73,0.0,0.0,85,0.00,CLR,,0.00,WeatherDisplay:10.37,2013-09-19 06:56:00,
2013-09-19 02:59:00,64.6,60.0,30.21,ENE,73,0.0,0.0,85,0.00,CLR,,0.00,WeatherDisplay:10.37,2013-09-19 06:59:00,
2013-09-19 03:00:00,64.4,59.8,30.21,ENE,73,0.0,0.0,85,0.00,CLR,,0.00,WeatherDisplay:10.37,2013-09-19 07:00:00,
2013-09-19 03:01:00,64.6,60.0,30.21,ENE,73,0.0,0.0,85,0.00,CLR,,0.00,WeatherDisplay:10.37,2013-09-19 07:01:00,
2013-09-19 03:04:00,64.9,59.9,30.21,ENE,73,0.0,0.0,84,0.00,CLR,,0.00,WeatherDisplay:10.37,2013-09-19 07:04:00,
2013-09-19 03:05:00,64.6,59.7,30.21,ENE,73,0.0,0.0,84,0.00,CLR,,0.00,WeatherDisplay:10.37,2013-09-19 07:05:00,
2013-09-19 03:07:00,64.7,59.8,30.21,ENE,73,0.0,0.0,84,0.00,CLR,,0.00,WeatherDisplay:10.37,2013-09-19 07:07:00,
2013-09-19 03:09:00,64.3,59.4,30.21,ENE,73,0.0,0.0,84,0.00,CLR,,0.00,WeatherDisplay:10.37,2013-09-19 07:09:00,
2013-09-19 03:10:00,64.9,59.9,30.21,ENE,73,0.0,0.0,84,0.00,CLR,,0.00,WeatherDisplay:10.37,2013-09-19 07:10:00,
2013-09-19 03:11:00,64.9,59.9,30.21,ENE,73,0.0,0.0,84,0.00,CLR,,0.00,WeatherDisplay:10.37,2013-09-19 07:11:00,
2013-09-19 03:12:00,64.8,59.9,30.21,ENE,73,0.0,0.0,84,0.00,CLR,,0.00,WeatherDisplay:10.37,2013-09-19 07:12:00,
2013-09-19 03:13:00,64.7,59.8,30.21,ENE,73,0.0,0.0,84,0.00,CLR,,0.00,WeatherDisplay:10.37,2013-09-19 07:13:00,
2013-09-19 03:15:00,64.9,59.9,30.21,ENE,73,0.0,0.0,84,0.00,CLR,,0.00,WeatherDisplay:10.37,2013-09-19 07:15:00,
2013-09-19 03:16:00,64.5,59.6,30.21,ENE,73,0.0,0.0,84,0.00,CLR,,0.00,WeatherDisplay:10.37,2013-09-19 07:16:00,
2013-09-19 03:17:00,64.6,59.7,30.21,ENE,73,0.0,0.0,84,0.00,CLR,,0.00,WeatherDisplay:10.37,2013-09-19 07:17:00,
2013-09-19 03:18:00,64.6,59.7,30.21,ENE,73,0.0,0.0,84,0.00,CLR,,0.00,WeatherDisplay:10.37,2013-09-19 07:18:00,
2013-09-19 03:20:00,64.6,59.7,30.21,ENE,73,0.0,0.0,84,0.00,CLR,,0.00,WeatherDisplay:10.37,2013-09-19 07:20:00,
2013-09-19 03:21:00,64.8,59.9,30.21,ENE,73,0.0,0.0,84,0.00,CLR,,0.00,WeatherDisplay:10.37,2013-09-19 07:21:00,
2013-09-19 03:22:00,64.7,59.8,30.21,East,83,2.2,4.4,84,0.00,CLR,,0.00,WeatherDisplay:10.37,2013-09-19 07:22:00,
2013-09-19 03:23:00,64.7,59.8,30.21,East,92,1.2,5.8,84,0.00,CLR,,0.00,WeatherDisplay:10.37,2013-09-19 07:23:00,
2013-09-19 03:25:00,64.8,59.9,30.21,East,92,0.0,0.0,84,0.00,CLR,,0.00,WeatherDisplay:10.37,2013-09-19 07:25:00,
2013-09-19 03:26:00,64.8,59.9,30.21,East,92,0.0,0.0,84,0.00,CLR,,0.00,WeatherDisplay:10.37,2013-09-19 07:26:00,
2013-09-19 03:27:00,65.0,60.0,30.21,East,86,0.6,2.7,84,0.00,CLR,,0.00,WeatherDisplay:10.37,2013-09-19 07:27:00,
2013-09-19 03:28:00,64.5,59.6,30.21,East,99,1.8,2.3,84,0.00,CLR,,0.00,WeatherDisplay:10.37,2013-09-19 07:28:00,
2013-09-19 03:30:00,64.6,59.7,30.21,ENE,68,0.9,4.6,84,0.00,CLR,,0.00,WeatherDisplay:10.37,2013-09-19 07:30:00,
2013-09-19 03:31:00,64.4,59.5,30.21,ENE,68,0.3,4.6,84,0.00,CLR,,0.00,WeatherDisplay:10.37,2013-09-19 07:31:00,
2013-09-19 03:32:00,64.2,59.3,30.21,ENE,68,0.0,0.0,84,0.00,CLR,,0.00,WeatherDisplay:10.37,2013-09-19 07:32:00,
2013-09-19 03:33:00,64.8,59.9,30.21,ENE,68,0.0,0.0,84,0.00,CLR,,0.00,WeatherDisplay:10.37,2013-09-19 07:33:00,
2013-09-19 03:35:00,64.4,59.8,30.21,ENE,68,0.0,0.0,85,0.00,CLR,,0.00,WeatherDisplay:10.37,2013-09-19 07:35:00,
2013-09-19 03:36:00,64.9,60.3,30.21,ENE,68,0.0,0.0,85,0.00,CLR,,0.00,WeatherDisplay:10.37,2013-09-19 07:36:00,
2013-09-19 03:37:00,64.7,60.1,30.21,ENE,68,0.0,0.0,85,0.00,CLR,,0.00,WeatherDisplay:10.37,2013-09-19 07:37:00,
2013-09-19 03:38:00,64.7,60.1,30.21,ENE,68,0.0,0.0,85,0.00,CLR,,0.00,WeatherDisplay:10.37,2013-09-19 07:38:00,
2013-09-19 03:40:00,64.7,60.1,30.21,ENE,68,0.0,0.0,85,0.00,CLR,,0.00,WeatherDisplay:10.37,2013-09-19 07:40:00,
2013-09-19 03:41:00,64.6,60.0,30.21,ENE,68,0.0,0.0,85,0.00,CLR,,0.00,WeatherDisplay:10.37,2013-09-19 07:41:00,
2013-09-19 03:42:00,64.9,60.3,30.21,ENE,68,0.0,0.0,85,0.00,CLR,,0.00,WeatherDisplay:10.37,2013-09-19 07:42:00,
2013-09-19 03:43:00,64.2,59.6,30.21,ENE,68,0.0,0.0,85,0.00,CLR,,0.00,WeatherDisplay:10.37,2013-09-19 07:43:00,
2013-09-19 03:44:00,64.5,59.9,30.21,ENE,68,0.0,0.0,85,0.00,CLR,,0.00,WeatherDisplay:10.37,2013-09-19 07:44:00,
2013-09-19 03:45:00,64.3,59.7,30.21,ENE,68,0.0,0.0,85,0.00,CLR,,0.00,WeatherDisplay:10.37,2013-09-19 07:45:00,
2013-09-19 03:46:00,64.6,59.7,30.21,ENE,68,0.0,0.0,84,0.00,CLR,,0.00,WeatherDisplay:10.37,2013-09-19 07:46:00,
2013-09-19 03:47:00,64.7,59.8,30.21,ENE,68,0.0,0.0,84,0.00,CLR,,0.00,WeatherDisplay:10.37,2013-09-19 07:47:00,
2013-09-19 03:48:00,64.2,59.3,30.21,ENE,68,0.0,0.0,84,0.00,CLR,,0.00,WeatherDisplay:10.37,2013-09-19 07:48:00,
2013-09-19 03:49:00,64.7,60.1,30.21,ENE,68,0.0,0.0,85,0.00,CLR,,0.00,WeatherDisplay:10.37,2013-09-19 07:49:00,
2013-09-19 03:50:00,64.4,59.8,30.21,ENE,68,0.0,0.0,85,0.00,CLR,,0.00,WeatherDisplay:10.37,2013-09-19 07:50:00,
2013-09-19 03:51:00,64.2,59.6,30.21,ENE,68,0.0,0.0,85,0.00,CLR,,0.00,WeatherDisplay:10.37,2013-09-19 07:51:00,
2013-09-19 03:53:00,64.9,60.3,30.21,ENE,68,0.0,0.0,85,0.00,CLR,,0.00,WeatherDisplay:10.37,2013-09-19 07:53:00,
2013-09-19 03:54:00,64.6,60.0,30.21,ENE,68,0.0,0.0,85,0.00,CLR,,0.00,WeatherDisplay:10.37,2013-09-19 07:54:00,
2013-09-19 03:55:00,64.3,59.7,30.21,ENE,68,0.0,0.0,85,0.00,CLR,,0.00,WeatherDisplay:10.37,2013-09-19 07:55:00,
2013-09-19 03:56:00,64.8,60.2,30.21,ENE,68,0.0,0.0,85,0.00,CLR,,0.00,WeatherDisplay:10.37,2013-09-19 07:56:00,
2013-09-19 03:58:00,64.4,59.8,30.21,ENE,68,0.0,0.0,85,0.00,CLR,,0.00,WeatherDisplay:10.37,2013-09-19 07:58:00,
2013-09-19 03:59:00,65.0,60.4,30.21,ENE,68,0.0,0.0,85,0.00,CLR,,0.00,WeatherDisplay:10.37,2013-09-19 07:59:00,
2013-09-19 04:00:00,64.6,60.0,30.21,ENE,68,0.0,0.0,85,0.00,CLR,,0.00,WeatherDisplay:10.37,2013-09-19 08:00:00,
2013-09-19 04:01:00,64.3,59.7,30.21,ENE,68,0.0,0.0,85,0.00,CLR,,0.00,WeatherDisplay:10.37,2013-09-19 08:01:00,
2013-09-19 04:04:00,64.6,60.0,30.21,ENE,68,0.0,0.0,85,0.00,CLR,,0.00,WeatherDisplay:10.37,2013-09-19 08:04:00,
2013-09-19 04:05:00,64.3,59.7,30.21,ENE,68,0.0,0.0,85,0.00,CLR,,0.00,WeatherDisplay:10.37,2013-09-19 08:05:00,
2013-09-19 04:06:00,64.6,60.0,30.21,ENE,68,0.0,0.0,85,0.00,CLR,,0.00,WeatherDisplay:10.37,2013-09-19 08:06:00,
2013-09-19 04:09:00,64.4,59.8,30.21,North,0,0.0,0.0,85,0.00,CLR,,0.00,WeatherDisplay:10.37,2013-09-19 08:09:00,
2013-09-19 04:11:00,64.7,60.1,30.21,North,0,0.0,0.0,85,0.00,CLR,,0.00,WeatherDisplay:10.37,2013-09-19 08:11:00,
2013-09-19 04:14:00,64.4,59.8,30.21,North,0,0.0,0.0,85,0.00,CLR,,0.00,WeatherDisplay:10.37,2013-09-19 08:14:00,
2013-09-19 04:15:00,64.6,60.0,30.21,North,0,0.0,0.0,85,0.00,CLR,,0.00,WeatherDisplay:10.37,2013-09-19 08:15:00,
2013-09-19 04:16:00,64.5,59.6,30.21,North,0,0.0,0.0,84,0.00,CLR,,0.00,WeatherDisplay:10.37,2013-09-19 08:16:00,
2013-09-19 04:19:00,64.4,59.8,30.21,North,0,0.0,0.0,85,0.00,CLR,,0.00,WeatherDisplay:10.37,2013-09-19 08:19:00,
2013-09-19 04:20:00,64.1,59.5,30.21,North,0,0.0,0.0,85,0.00,CLR,,0.00,WeatherDisplay:10.37,2013-09-19 08:20:00,
2013-09-19 04:21:00,64.1,59.5,30.20,North,0,0.0,0.0,85,0.00,CLR,,0.00,WeatherDisplay:10.37,2013-09-19 08:21:00,
2013-09-19 04:25:00,64.8,60.2,30.20,North,0,0.0,0.0,85,0.00,CLR,,0.00,WeatherDisplay:10.37,2013-09-19 08:25:00,
2013-09-19 04:26:00,64.5,59.9,30.20,North,0,0.0,0.0,85,0.00,CLR,,0.00,WeatherDisplay:10.37,2013-09-19 08:26:00,
2013-09-19 04:27:00,64.8,60.2,30.20,North,0,0.0,0.0,85,0.00,CLR,,0.00,WeatherDisplay:10.37,2013-09-19 08:27:00,
2013-09-19 04:30:00,64.2,59.6,30.21,North,0,0.0,0.0,85,0.00,CLR,,0.00,WeatherDisplay:10.37,2013-09-19 08:30:00,
2013-09-19 04:31:00,64.7,60.1,30.20,North,0,0.0,0.0,85,0.00,CLR,,0.00,WeatherDisplay:10.37,2013-09-19 08:31:00,
2013-09-19 04:32:00,64.6,60.0,30.20,North,0,0.0,0.0,85,0.00,CLR,,0.00,WeatherDisplay:10.37,2013-09-19 08:32:00,
2013-09-19 04:35:00,64.7,60.1,30.20,North,0,0.0,0.0,85,0.00,CLR,,0.00,WeatherDisplay:10.37,2013-09-19 08:35:00,
2013-09-19 04:36:00,64.4,59.8,30.21,North,0,0.0,0.0,85,0.00,CLR,,0.00,WeatherDisplay:10.37,2013-09-19 08:36:00,
2013-09-19 04:37:00,64.9,60.3,30.20,North,0,0.0,0.0,85,0.00,CLR,,0.00,WeatherDisplay:10.37,2013-09-19 08:37:00,
2013-09-19 04:40:00,64.6,60.0,30.20,North,0,0.0,0.0,85,0.00,CLR,,0.00,WeatherDisplay:10.37,2013-09-19 08:40:00,
2013-09-19 04:41:00,64.4,59.8,30.20,North,0,0.0,0.0,85,0.00,CLR,,0.00,WeatherDisplay:10.37,2013-09-19 08:41:00,
2013-09-19 04:42:00,64.5,59.9,30.20,North,0,0.0,0.0,85,0.00,CLR,,0.00,WeatherDisplay:10.37,2013-09-19 08:42:00,
2013-09-19 04:46:00,64.6,60.3,30.20,North,0,0.0,0.0,86,0.00,CLR,,0.00,WeatherDisplay:10.37,2013-09-19 08:46:00,
2013-09-19 04:47:00,64.2,59.9,30.20,North,0,0.0,0.0,86,0.00,CLR,,0.00,WeatherDisplay:10.37,2013-09-19 08:47:00,
2013-09-19 04:48:00,64.3,60.0,30.20,North,0,0.0,0.0,86,0.00,CLR,,0.00,WeatherDisplay:10.37,2013-09-19 08:48:00,
2013-09-19 04:51:00,64.4,60.1,30.20,North,0,0.0,0.0,86,0.00,CLR,,0.00,WeatherDisplay:10.37,2013-09-19 08:51:00,
2013-09-19 04:52:00,64.3,60.0,30.20,North,0,0.0,0.0,86,0.00,CLR,,0.00,WeatherDisplay:10.37,2013-09-19 08:52:00,
2013-09-19 04:53:00,64.3,60.0,30.20,North,0,0.0,0.0,86,0.00,CLR,,0.00,WeatherDisplay:10.37,2013-09-19 08:53:00,
2013-09-19 04:56:00,64.3,60.0,30.20,North,0,0.0,0.0,86,0.00,CLR,,0.00,WeatherDisplay:10.37,2013-09-19 08:56:00,
2013-09-19 04:57:00,64.6,60.3,30.20,North,0,0.0,0.0,86,0.00,CLR,,0.00,WeatherDisplay:10.37,2013-09-19 08:57:00,
2013-09-19 04:58:00,64.2,59.9,30.20,North,0,0.0,0.0,86,0.00,CLR,,0.00,WeatherDisplay:10.37,2013-09-19 08:58:00,
2013-09-19 05:01:00,64.6,60.3,30.20,North,0,0.0,0.0,86,0.00,CLR,,0.00,WeatherDisplay:10.37,2013-09-19 09:01:00,
2013-09-19 05:02:00,64.8,60.5,30.20,North,0,0.0,0.0,86,0.00,CLR,,0.00,WeatherDisplay:10.37,2013-09-19 09:02:00,
2013-09-19 05:03:00,64.6,60.3,30.20,North,0,0.0,0.0,86,0.00,CLR,,0.00,WeatherDisplay:10.37,2013-09-19 09:03:00,
2013-09-19 05:06:00,64.5,60.2,30.20,North,0,0.0,0.0,86,0.00,CLR,,0.00,WeatherDisplay:10.37,2013-09-19 09:06:00,
2013-09-19 05:07:00,64.5,60.2,30.20,North,0,0.0,0.0,86,0.00,CLR,,0.00,WeatherDisplay:10.37,2013-09-19 09:07:00,
2013-09-19 05:08:00,64.2,59.9,30.19,North,0,0.0,0.0,86,0.00,CLR,,0.00,WeatherDisplay:10.37,2013-09-19 09:08:00,
2013-09-19 05:09:00,64.9,60.6,30.20,North,0,0.0,0.0,86,0.00,CLR,,0.00,WeatherDisplay:10.37,2013-09-19 09:09:00,
2013-09-19 05:12:00,64.3,60.0,30.19,North,0,0.0,0.0,86,0.00,CLR,,0.00,WeatherDisplay:10.37,2013-09-19 09:12:00,
2013-09-19 05:13:00,64.4,60.1,30.19,North,0,0.0,0.0,86,0.00,CLR,,0.00,WeatherDisplay:10.37,2013-09-19 09:13:00,
2013-09-19 05:14:00,64.7,60.4,30.19,North,0,0.0,0.0,86,0.00,CLR,,0.00,WeatherDisplay:10.37,2013-09-19 09:14:00,
2013-09-19 05:17:00,64.7,60.4,30.19,North,0,0.0,0.0,86,0.00,CLR,,0.00,WeatherDisplay:10.37,2013-09-19 09:17:00,
2013-09-19 05:18:00,64.7,60.4,30.19,North,0,0.0,0.0,86,0.00,CLR,,0.00,WeatherDisplay:10.37,2013-09-19 09:18:00,
2013-09-19 05:19:00,64.2,59.9,30.19,North,0,0.0,0.0,86,0.00,CLR,,0.00,WeatherDisplay:10.37,2013-09-19 09:19:00,
2013-09-19 05:22:00,64.4,60.1,30.20,North,0,0.0,0.0,86,0.00,CLR,,0.00,WeatherDisplay:10.37,2013-09-19 09:22:00,
2013-09-19 05:23:00,64.3,60.0,30.20,North,0,0.0,0.0,86,0.00,CLR,,0.00,WeatherDisplay:10.37,2013-09-19 09:23:00,
2013-09-19 05:24:00,64.6,60.3,30.20,North,0,0.0,0.0,86,0.00,CLR,,0.00,WeatherDisplay:10.37,2013-09-19 09:24:00,
2013-09-19 05:27:00,64.4,60.1,30.20,North,0,0.0,0.0,86,0.00,CLR,,0.00,WeatherDisplay:10.37,2013-09-19 09:27:00,
2013-09-19 05:28:00,64.7,60.4,30.20,North,0,0.0,0.0,86,0.00,CLR,,0.00,WeatherDisplay:10.37,2013-09-19 09:28:00,
2013-09-19 05:29:00,64.6,60.3,30.20,North,0,0.0,0.0,86,0.00,CLR,,0.00,WeatherDisplay:10.37,2013-09-19 09:29:00,
2013-09-19 05:33:00,64.2,59.9,30.19,North,0,0.0,0.0,86,0.00,CLR,,0.00,WeatherDisplay:10.37,2013-09-19 09:33:00,
2013-09-19 05:34:00,64.6,60.3,30.19,North,0,0.0,0.0,86,0.00,CLR,,0.00,WeatherDisplay:10.37,2013-09-19 09:34:00,
2013-09-19 05:38:00,64.6,60.3,30.19,North,0,0.0,0.0,86,0.00,CLR,,0.00,WeatherDisplay:10.37,2013-09-19 09:38:00,
2013-09-19 05:39:00,64.4,60.1,30.19,North,0,0.0,0.0,86,0.00,CLR,,0.00,WeatherDisplay:10.37,2013-09-19 09:39:00,
2013-09-19 05:40:00,64.1,59.8,30.19,North,0,0.0,0.0,86,0.00,CLR,,0.00,WeatherDisplay:10.37,2013-09-19 09:40:00,
2013-09-19 05:43:00,64.3,60.0,30.19,North,0,0.0,0.0,86,0.00,CLR,,0.00,WeatherDisplay:10.37,2013-09-19 09:43:00,
2013-09-19 05:44:00,64.3,60.0,30.19,North,0,0.0,0.0,86,0.00,CLR,,0.00,WeatherDisplay:10.37,2013-09-19 09:44:00,
2013-09-19 05:45:00,64.2,59.9,30.19,North,0,0.0,0.0,86,0.00,CLR,,0.00,WeatherDisplay:10.37,2013-09-19 09:45:00,
2013-09-19 05:48:00,64.3,60.0,30.19,North,0,0.0,0.0,86,0.00,CLR,,0.00,WeatherDisplay:10.37,2013-09-19 09:48:00,
2013-09-19 05:49:00,64.1,59.8,30.19,North,0,0.0,0.0,86,0.00,CLR,,0.00,WeatherDisplay:10.37,2013-09-19 09:49:00,
2013-09-19 05:50:00,64.4,60.4,30.19,North,0,0.0,0.0,87,0.00,CLR,,0.00,WeatherDisplay:10.37,2013-09-19 09:50:00,
2013-09-19 05:54:00,64.2,60.2,30.19,North,0,0.0,0.0,87,0.00,CLR,,0.00,WeatherDisplay:10.37,2013-09-19 09:54:00,
2013-09-19 05:55:00,64.0,60.1,30.19,North,0,0.0,0.0,87,0.00,CLR,,0.00,WeatherDisplay:10.37,2013-09-19 09:55:00,
2013-09-19 05:59:00,64.1,60.2,30.19,North,0,0.0,0.0,87,0.00,CLR,,0.00,WeatherDisplay:10.37,2013-09-19 09:59:00,
2013-09-19 06:00:00,64.1,60.2,30.19,North,0,0.0,0.0,87,0.00,CLR,,0.00,WeatherDisplay:10.37,2013-09-19 10:00:00,
2013-09-19 06:01:00,64.2,60.2,30.19,North,0,0.0,0.0,87,0.00,CLR,,0.00,WeatherDisplay:10.37,2013-09-19 10:01:00,
2013-09-19 06:04:00,64.6,60.6,30.20,North,0,0.0,0.0,87,0.00,CLR,,0.00,WeatherDisplay:10.37,2013-09-19 10:04:00,
2013-09-19 06:06:00,64.2,60.2,30.20,North,0,0.0,0.0,87,0.00,CLR,,0.00,WeatherDisplay:10.37,2013-09-19 10:06:00,
2013-09-19 06:09:00,64.6,60.6,30.20,North,0,0.0,0.0,87,0.00,CLR,,0.00,WeatherDisplay:10.37,2013-09-19 10:09:00,
2013-09-19 06:10:00,64.2,60.2,30.20,North,0,0.0,0.0,87,0.00,CLR,,0.00,WeatherDisplay:10.37,2013-09-19 10:10:00,
2013-09-19 06:11:00,64.2,60.2,30.20,North,0,0.0,0.0,87,0.00,CLR,,0.00,WeatherDisplay:10.37,2013-09-19 10:11:00,
2013-09-19 06:14:00,64.6,60.6,30.20,North,0,0.0,0.0,87,0.00,CLR,,0.00,WeatherDisplay:10.37,2013-09-19 10:14:00,
2013-09-19 06:15:00,64.1,60.5,30.20,North,0,0.0,0.0,88,0.00,CLR,,0.00,WeatherDisplay:10.37,2013-09-19 10:15:00,
2013-09-19 06:16:00,64.0,60.4,30.20,North,0,0.0,0.0,88,0.00,CLR,,0.00,WeatherDisplay:10.37,2013-09-19 10:16:00,
2013-09-19 06:19:00,64.6,61.0,30.20,North,0,0.0,0.0,88,0.00,CLR,,0.00,WeatherDisplay:10.37,2013-09-19 10:19:00,
2013-09-19 06:20:00,64.3,60.7,30.20,North,0,0.0,0.0,88,0.00,CLR,,0.00,WeatherDisplay:10.37,2013-09-19 10:20:00,
2013-09-19 06:21:00,64.2,60.6,30.20,North,0,0.0,0.0,88,0.00,CLR,,0.00,WeatherDisplay:10.37,2013-09-19 10:21:00,
2013-09-19 06:24:00,63.8,60.2,30.20,North,0,0.0,0.0,88,0.00,CLR,,0.00,WeatherDisplay:10.37,2013-09-19 10:24:00,
2013-09-19 06:25:00,64.1,60.5,30.20,North,0,0.0,0.0,88,0.00,CLR,,0.00,WeatherDisplay:10.37,2013-09-19 10:25:00,
2013-09-19 06:26:00,64.7,61.1,30.20,North,0,0.0,0.0,88,0.00,CLR,,0.00,WeatherDisplay:10.37,2013-09-19 10:26:00,
2013-09-19 06:29:00,64.4,60.8,30.19,North,0,0.0,0.0,88,0.00,CLR,,0.00,WeatherDisplay:10.37,2013-09-19 10:29:00,
2013-09-19 06:30:00,64.6,61.0,30.19,North,0,0.0,0.0,88,0.00,CLR,,0.00,WeatherDisplay:10.37,2013-09-19 10:30:00,
2013-09-19 06:31:00,64.1,60.5,30.19,North,0,0.0,0.0,88,0.00,CLR,,0.00,WeatherDisplay:10.37,2013-09-19 10:31:00,
2013-09-19 06:34:00,64.6,61.0,30.19,North,0,0.0,0.0,88,0.00,CLR,,0.00,WeatherDisplay:10.37,2013-09-19 10:34:00,
2013-09-19 06:35:00,63.9,60.3,30.19,North,0,0.0,0.0,88,0.00,CLR,,0.00,WeatherDisplay:10.37,2013-09-19 10:35:00,
2013-09-19 06:36:00,64.3,60.7,30.20,North,0,0.0,0.0,88,0.00,CLR,,0.00,WeatherDisplay:10.37,2013-09-19 10:36:00,
2013-09-19 06:39:00,64.4,60.8,30.20,North,0,0.0,0.0,88,0.00,CLR,,0.00,WeatherDisplay:10.37,2013-09-19 10:39:00,
2013-09-19 06:40:00,63.9,60.3,30.20,North,0,0.0,0.0,88,0.00,CLR,,0.00,WeatherDisplay:10.37,2013-09-19 10:40:00,
2013-09-19 06:41:00,64.4,60.8,30.19,North,0,0.0,0.0,88,0.00,CLR,,0.00,WeatherDisplay:10.37,2013-09-19 10:41:00,
2013-09-19 06:42:00,64.0,60.4,30.19,North,0,0.0,0.0,88,0.00,CLR,,0.00,WeatherDisplay:10.37,2013-09-19 10:42:00,
2013-09-19 06:45:00,64.4,60.8,30.19,North,0,0.0,0.0,88,0.00,CLR,,0.00,WeatherDisplay:10.37,2013-09-19 10:45:00,
2013-09-19 06:46:00,64.2,60.6,30.19,North,0,0.0,0.0,88,0.00,CLR,,0.00,WeatherDisplay:10.37,2013-09-19 10:46:00,
2013-09-19 06:47:00,64.4,60.8,30.19,North,0,0.0,0.0,88,0.00,CLR,,0.00,WeatherDisplay:10.37,2013-09-19 10:47:00,
2013-09-19 06:50:00,64.1,60.5,30.20,North,0,0.0,0.0,88,0.00,CLR,,0.00,WeatherDisplay:10.37,2013-09-19 10:50:00,
2013-09-19 06:51:00,64.5,60.9,30.20,North,0,0.0,0.0,88,0.00,CLR,,0.00,WeatherDisplay:10.37,2013-09-19 10:51:00,
2013-09-19 06:52:00,63.9,60.3,30.20,North,0,0.0,0.0,88,0.00,CLR,,0.00,WeatherDisplay:10.37,2013-09-19 10:52:00,
2013-09-19 06:54:00,64.4,60.8,30.20,North,0,0.0,0.0,88,0.00,CLR,,0.00,WeatherDisplay:10.37,2013-09-19 10:54:00,
2013-09-19 06:55:00,63.9,60.3,30.20,North,0,0.0,0.0,88,0.00,CLR,,0.00,WeatherDisplay:10.37,2013-09-19 10:55:00,
2013-09-19 06:56:00,64.1,60.5,30.20,North,0,0.0,0.0,88,0.00,CLR,,0.00,WeatherDisplay:10.37,2013-09-19 10:56:00,
2013-09-19 06:57:00,64.2,60.6,30.20,North,0,0.0,0.0,88,0.00,CLR,,0.00,WeatherDisplay:10.37,2013-09-19 10:57:00,
2013-09-19 06:58:00,64.3,60.7,30.20,North,0,0.0,0.0,88,0.00,CLR,,0.00,WeatherDisplay:10.37,2013-09-19 10:58:00,
2013-09-19 06:59:00,64.2,60.6,30.20,North,0,0.0,0.0,88,0.00,CLR,,0.00,WeatherDisplay:10.37,2013-09-19 10:59:00,
2013-09-19 07:00:00,64.2,60.6,30.20,North,0,0.0,0.0,88,0.00,CLR,,0.00,WeatherDisplay:10.37,2013-09-19 11:00:00,
2013-09-19 07:01:00,64.0,60.4,30.20,North,0,0.0,0.0,88,0.00,CLR,,0.00,WeatherDisplay:10.37,2013-09-19 11:01:00,
2013-09-19 07:02:00,64.0,60.4,30.20,North,0,0.0,0.0,88,0.00,CLR,,0.00,WeatherDisplay:10.37,2013-09-19 11:02:00,
2013-09-19 07:03:00,64.1,60.5,30.20,North,0,0.0,0.0,88,0.00,CLR,,0.00,WeatherDisplay:10.37,2013-09-19 11:03:00,
2013-09-19 07:04:00,63.9,60.3,30.20,North,0,0.0,0.0,88,0.00,CLR,,0.00,WeatherDisplay:10.37,2013-09-19 11:04:00,
2013-09-19 07:05:00,64.2,60.6,30.20,North,0,0.0,0.0,88,0.00,CLR,,0.00,WeatherDisplay:10.37,2013-09-19 11:05:00,
2013-09-19 07:06:00,64.3,60.7,30.20,North,0,0.0,0.0,88,0.00,CLR,,0.00,WeatherDisplay:10.37,2013-09-19 11:06:00,
2013-09-19 07:07:00,64.2,60.6,30.20,North,0,0.0,0.0,88,0.00,CLR,,0.00,WeatherDisplay:10.37,2013-09-19 11:07:00,
2013-09-19 07:08:00,63.9,60.3,30.20,North,0,0.0,0.0,88,0.00,CLR,,0.00,WeatherDisplay:10.37,2013-09-19 11:08:00,
2013-09-19 07:09:00,64.2,60.6,30.20,North,0,0.0,0.0,88,0.00,CLR,,0.00,WeatherDisplay:10.37,2013-09-19 11:09:00,
2013-09-19 07:10:00,63.7,60.1,30.20,North,0,0.0,0.0,88,0.00,CLR,,0.00,WeatherDisplay:10.37,2013-09-19 11:10:00,
2013-09-19 07:12:00,63.9,60.3,30.20,North,0,0.0,0.0,88,0.00,CLR,,0.00,WeatherDisplay:10.37,2013-09-19 11:12:00,
2013-09-19 07:13:00,64.2,60.6,30.20,North,0,0.0,0.0,88,0.00,CLR,,0.00,WeatherDisplay:10.37,2013-09-19 11:13:00,
2013-09-19 07:14:00,63.9,60.3,30.20,North,0,0.0,0.0,88,0.00,CLR,,0.00,WeatherDisplay:10.37,2013-09-19 11:14:00,
2013-09-19 07:15:00,64.3,60.7,30.20,North,0,0.0,0.0,88,0.00,CLR,,0.00,WeatherDisplay:10.37,2013-09-19 11:15:00,
2013-09-19 07:17:00,64.3,60.7,30.20,North,0,0.0,0.0,88,0.00,CLR,,0.00,WeatherDisplay:10.37,2013-09-19 11:17:00,
2013-09-19 07:19:00,64.3,60.7,30.20,North,0,0.0,0.0,88,0.00,CLR,,0.00,WeatherDisplay:10.37,2013-09-19 11:19:00,
2013-09-19 07:20:00,63.8,60.2,30.20,North,0,0.0,0.0,88,0.00,CLR,,0.00,WeatherDisplay:10.37,2013-09-19 11:20:00,
2013-09-19 07:22:00,64.2,60.6,30.20,North,0,0.0,0.0,88,0.00,CLR,,0.00,WeatherDisplay:10.37,2013-09-19 11:22:00,
2013-09-19 07:24:00,64.2,60.6,30.20,North,0,0.0,0.0,88,0.00,CLR,,0.00,WeatherDisplay:10.37,2013-09-19 11:24:00,
2013-09-19 07:25:00,63.9,60.3,30.20,North,0,0.0,0.0,88,0.00,CLR,,0.00,WeatherDisplay:10.37,2013-09-19 11:25:00,
2013-09-19 07:27:00,63.7,60.1,30.20,North,0,0.0,0.0,88,0.00,CLR,,0.00,WeatherDisplay:10.37,2013-09-19 11:27:00,
2013-09-19 07:29:00,64.2,60.6,30.20,North,0,0.0,0.0,88,0.00,CLR,,0.00,WeatherDisplay:10.37,2013-09-19 11:29:00,
2013-09-19 07:31:00,64.1,60.5,30.21,North,0,0.0,0.0,88,0.00,CLR,,0.00,WeatherDisplay:10.37,2013-09-19 11:31:00,
2013-09-19 07:32:00,64.0,60.4,30.21,North,0,0.0,0.0,88,0.00,CLR,,0.00,WeatherDisplay:10.37,2013-09-19 11:32:00,
2013-09-19 07:34:00,64.0,60.4,30.21,North,0,0.0,0.0,88,0.00,CLR,,0.00,WeatherDisplay:10.37,2013-09-19 11:34:00,
2013-09-19 07:36:00,64.0,60.4,30.21,North,0,0.0,0.0,88,0.00,CLR,,0.00,WeatherDisplay:10.37,2013-09-19 11:36:00,
2013-09-19 07:37:00,64.2,60.6,30.21,North,0,0.0,0.0,88,0.00,CLR,,0.00,WeatherDisplay:10.37,2013-09-19 11:37:00,
2013-09-19 07:39:00,64.2,60.6,30.21,North,0,0.0,0.0,88,0.00,CLR,,0.00,WeatherDisplay:10.37,2013-09-19 11:39:00,
2013-09-19 07:40:00,64.4,60.8,30.21,North,0,0.0,0.0,88,0.00,CLR,,0.00,WeatherDisplay:10.37,2013-09-19 11:40:00,
2013-09-19 07:41:00,64.3,60.7,30.21,North,0,0.0,0.0,88,0.00,CLR,,0.00,WeatherDisplay:10.37,2013-09-19 11:41:00,
2013-09-19 07:43:00,64.3,60.7,30.21,North,0,0.0,0.0,88,0.00,CLR,,0.00,WeatherDisplay:10.37,2013-09-19 11:43:00,
2013-09-19 07:44:00,64.2,60.6,30.21,North,0,0.0,0.0,88,0.00,CLR,,0.00,WeatherDisplay:10.37,2013-09-19 11:44:00,
2013-09-19 07:45:00,64.3,60.7,30.21,North,0,0.0,0.0,88,0.00,CLR,,0.00,WeatherDisplay:10.37,2013-09-19 11:45:00,
2013-09-19 07:46:00,63.6,60.0,30.21,North,0,0.0,0.0,88,0.00,CLR,,0.00,WeatherDisplay:10.37,2013-09-19 11:46:00,
2013-09-19 07:48:00,64.4,60.8,30.21,North,0,0.0,0.0,88,0.00,CLR,,0.00,WeatherDisplay:10.37,2013-09-19 11:48:00,
2013-09-19 07:50:00,64.4,60.8,30.21,North,0,0.0,0.0,88,0.00,CLR,,0.00,WeatherDisplay:10.37,2013-09-19 11:50:00,
2013-09-19 07:51:00,64.3,60.7,30.21,North,0,0.0,0.0,88,0.00,CLR,,0.00,WeatherDisplay:10.37,2013-09-19 11:51:00,
2013-09-19 07:54:00,64.3,60.7,30.21,North,0,0.0,0.0,88,0.00,CLR,,0.00,WeatherDisplay:10.37,2013-09-19 11:54:00,
2013-09-19 07:55:00,64.6,61.0,30.21,North,0,0.0,0.0,88,0.00,CLR,,0.00,WeatherDisplay:10.37,2013-09-19 11:55:00,
2013-09-19 07:56:00,64.3,60.7,30.21,North,0,0.0,0.0,88,0.00,CLR,,0.00,WeatherDisplay:10.37,2013-09-19 11:56:00,
2013-09-19 07:58:00,63.7,60.1,30.21,North,0,0.0,0.0,88,0.00,CLR,,0.00,WeatherDisplay:10.37,2013-09-19 11:58:00,
2013-09-19 08:00:00,64.4,60.8,30.21,North,0,0.0,0.0,88,0.00,CLR,,0.00,WeatherDisplay:10.37,2013-09-19 12:00:00,
2013-09-19 08:01:00,64.0,60.4,30.21,North,0,0.0,0.0,88,0.00,CLR,,0.00,WeatherDisplay:10.37,2013-09-19 12:01:00,
2013-09-19 08:04:00,64.3,60.7,30.21,North,0,0.0,0.0,88,0.00,CLR,,0.00,WeatherDisplay:10.37,2013-09-19 12:04:00,
2013-09-19 08:05:00,64.6,61.0,30.21,North,0,0.0,0.0,88,0.00,CLR,,0.00,WeatherDisplay:10.37,2013-09-19 12:05:00,
2013-09-19 08:06:00,64.6,61.0,30.21,North,0,0.0,0.0,88,0.00,CLR,,0.00,WeatherDisplay:10.37,2013-09-19 12:06:00,
2013-09-19 08:09:00,64.2,60.6,30.21,North,0,0.0,0.0,88,0.00,CLR,,0.00,WeatherDisplay:10.37,2013-09-19 12:09:00,
2013-09-19 08:11:00,64.3,60.7,30.21,North,0,0.0,0.0,88,0.00,CLR,,0.00,WeatherDisplay:10.37,2013-09-19 12:11:00,
2013-09-19 08:12:00,64.3,60.7,30.21,North,0,0.0,0.0,88,0.00,CLR,,0.00,WeatherDisplay:10.37,2013-09-19 12:12:00,
2013-09-19 08:14:00,64.4,60.8,30.21,North,0,0.0,0.0,88,0.00,CLR,,0.00,WeatherDisplay:10.37,2013-09-19 12:14:00,
2013-09-19 08:16:00,64.7,61.1,30.21,North,0,0.0,0.0,88,0.00,CLR,,0.00,WeatherDisplay:10.37,2013-09-19 12:16:00,
2013-09-19 08:17:00,63.9,60.3,30.21,North,0,0.0,0.0,88,0.00,CLR,,0.00,WeatherDisplay:10.37,2013-09-19 12:17:00,
2013-09-19 08:19:00,64.3,60.3,30.21,North,0,0.0,0.0,87,0.00,CLR,,0.00,WeatherDisplay:10.37,2013-09-19 12:19:00,
2013-09-19 08:21:00,64.0,60.4,30.21,North,0,0.0,0.0,88,0.00,CLR,,0.00,WeatherDisplay:10.37,2013-09-19 12:21:00,
2013-09-19 08:22:00,64.6,61.0,30.21,North,0,0.0,0.0,88,0.00,CLR,,0.00,WeatherDisplay:10.37,2013-09-19 12:22:00,
2013-09-19 08:24:00,64.4,60.4,30.21,North,0,0.0,0.0,87,0.00,CLR,,0.00,WeatherDisplay:10.37,2013-09-19 12:24:00,
2013-09-19 08:26:00,64.7,60.7,30.22,North,0,0.0,0.0,87,0.00,CLR,,0.00,WeatherDisplay:10.37,2013-09-19 12:26:00,
2013-09-19 08:27:00,64.3,60.3,30.22,North,0,0.0,0.0,87,0.00,CLR,,0.00,WeatherDisplay:10.37,2013-09-19 12:27:00,
2013-09-19 08:29:00,64.6,60.6,30.22,North,0,0.0,0.0,87,0.00,CLR,,0.00,WeatherDisplay:10.37,2013-09-19 12:29:00,
2013-09-19 08:31:00,64.7,60.7,30.22,North,0,0.0,0.0,87,0.00,CLR,,0.00,WeatherDisplay:10.37,2013-09-19 12:31:00,
2013-09-19 08:32:00,65.0,61.0,30.22,North,0,0.0,0.0,87,0.00,CLR,,0.00,WeatherDisplay:10.37,2013-09-19 12:32:00,
2013-09-19 08:35:00,64.6,60.6,30.22,North,0,0.0,0.0,87,0.00,CLR,,0.00,WeatherDisplay:10.37,2013-09-19 12:35:00,
2013-09-19 08:37:00,64.4,60.4,30.21,North,0,0.0,0.0,87,0.00,CLR,,0.00,WeatherDisplay:10.37,2013-09-19 12:37:00,
2013-09-19 08:38:00,64.5,60.5,30.22,North,0,0.0,0.0,87,0.00,CLR,,0.00,WeatherDisplay:10.37,2013-09-19 12:38:00,
2013-09-19 08:40:00,64.9,60.9,30.21,North,0,0.0,0.0,87,0.00,CLR,,0.00,WeatherDisplay:10.37,2013-09-19 12:40:00,
2013-09-19 08:42:00,64.8,60.8,30.21,North,0,0.0,0.0,87,0.00,CLR,,0.00,WeatherDisplay:10.37,2013-09-19 12:42:00,
2013-09-19 08:43:00,64.3,60.3,30.22,North,0,0.0,0.0,87,0.00,CLR,,0.00,WeatherDisplay:10.37,2013-09-19 12:43:00,
2013-09-19 08:46:00,64.5,60.5,30.22,North,0,0.0,0.0,87,0.00,CLR,,0.00,WeatherDisplay:10.37,2013-09-19 12:46:00,
2013-09-19 08:47:00,64.6,60.6,30.22,North,0,0.0,0.0,87,0.00,CLR,,0.00,WeatherDisplay:10.37,2013-09-19 12:47:00,
2013-09-19 08:48:00,64.5,60.5,30.22,North,0,0.0,0.0,87,0.00,CLR,,0.00,WeatherDisplay:10.37,2013-09-19 12:48:00,
2013-09-19 08:51:00,65.0,61.0,30.22,North,0,0.0,0.0,87,0.00,CLR,,0.00,WeatherDisplay:10.37,2013-09-19 12:51:00,
2013-09-19 08:52:00,64.9,60.9,30.22,North,0,0.0,0.0,87,0.00,CLR,,0.00,WeatherDisplay:10.37,2013-09-19 12:52:00,
2013-09-19 08:53:00,65.1,61.1,30.21,North,0,0.0,0.0,87,0.00,CLR,,0.00,WeatherDisplay:10.37,2013-09-19 12:53:00,
2013-09-19 08:57:00,64.6,60.6,30.22,North,0,0.0,0.0,87,0.00,CLR,,0.00,WeatherDisplay:10.37,2013-09-19 12:57:00,
2013-09-19 08:58:00,65.1,61.1,30.22,North,0,0.0,0.0,87,0.00,CLR,,0.00,WeatherDisplay:10.37,2013-09-19 12:58:00,
2013-09-19 08:59:00,64.8,60.8,30.22,North,0,0.0,0.0,87,0.00,CLR,,0.00,WeatherDisplay:10.37,2013-09-19 12:59:00,
2013-09-19 09:03:00,64.6,60.6,30.22,North,0,0.0,0.0,87,0.00,CLR,,0.00,WeatherDisplay:10.37,2013-09-19 13:03:00,
2013-09-19 09:04:00,65.2,61.2,30.22,North,0,0.0,0.0,87,0.00,CLR,,0.00,WeatherDisplay:10.37,2013-09-19 13:04:00,
2013-09-19 09:08:00,65.2,61.2,30.22,North,0,0.0,0.0,87,0.00,CLR,,0.00,WeatherDisplay:10.37,2013-09-19 13:08:00,
2013-09-19 09:09:00,65.0,61.0,30.22,North,0,0.0,0.0,87,0.00,CLR,,0.00,WeatherDisplay:10.37,2013-09-19 13:09:00,
2013-09-19 09:13:00,65.3,61.3,30.22,North,0,0.0,0.0,87,0.00,CLR,,0.00,WeatherDisplay:10.37,2013-09-19 13:13:00,
2013-09-19 09:14:00,65.0,61.0,30.22,North,0,0.0,0.0,87,0.00,CLR,,0.00,WeatherDisplay:10.37,2013-09-19 13:14:00,
2013-09-19 09:18:00,65.4,61.4,30.22,North,0,0.0,0.0,87,0.00,CLR,,0.00,WeatherDisplay:10.37,2013-09-19 13:18:00,
2013-09-19 09:19:00,65.3,61.3,30.22,North,0,0.0,0.0,87,0.00,CLR,,0.00,WeatherDisplay:10.37,2013-09-19 13:19:00,
2013-09-19 09:24:00,65.2,61.2,30.22,North,0,0.0,0.0,87,0.00,CLR,,0.00,WeatherDisplay:10.37,2013-09-19 13:24:00,
2013-09-19 09:29:00,65.8,61.5,30.22,North,0,0.0,0.0,86,0.00,CLR,,0.00,WeatherDisplay:10.37,2013-09-19 13:29:00,
2013-09-19 09:30:00,65.7,61.4,30.22,North,0,0.0,0.0,86,0.00,CLR,,0.00,WeatherDisplay:10.37,2013-09-19 13:30:00,
2013-09-19 09:34:00,66.1,62.4,30.22,North,0,0.0,0.0,88,0.00,CLR,,0.00,WeatherDisplay:10.37,2013-09-19 13:34:00,
2013-09-19 09:35:00,66.4,63.1,30.22,North,0,0.0,0.0,89,0.00,CLR,,0.00,WeatherDisplay:10.37,2013-09-19 13:35:00,
2013-09-19 09:39:00,66.8,65.0,30.22,North,0,0.0,0.0,94,0.00,CLR,,0.00,WeatherDisplay:10.37,2013-09-19 13:39:00,
2013-09-19 09:40:00,66.7,64.6,30.22,North,0,0.0,0.0,93,0.00,CLR,,0.00,WeatherDisplay:10.37,2013-09-19 13:40:00,
2013-09-19 09:44:00,67.1,65.0,30.22,North,0,0.0,0.0,93,0.00,CLR,,0.00,WeatherDisplay:10.37,2013-09-19 13:44:00,
2013-09-19 09:45:00,67.0,64.6,30.22,North,0,0.0,0.0,92,0.00,CLR,,0.00,WeatherDisplay:10.37,2013-09-19 13:45:00,
2013-09-19 09:50:00,67.1,64.7,30.22,North,0,0.0,0.0,92,0.00,CLR,,0.00,WeatherDisplay:10.37,2013-09-19 13:50:00,
2013-09-19 09:51:00,67.5,64.5,30.22,North,0,0.0,0.0,90,0.00,CLR,,0.00,WeatherDisplay:10.37,2013-09-19 13:51:00,
2013-09-19 09:55:00,67.4,64.7,30.22,North,0,0.0,0.0,91,0.00,CLR,,0.00,WeatherDisplay:10.37,2013-09-19 13:55:00,
2013-09-19 09:56:00,67.3,64.6,30.22,North,0,0.0,0.0,91,0.00,CLR,,0.00,WeatherDisplay:10.37,2013-09-19 13:56:00,
2013-09-19 10:00:00,67.4,65.0,30.22,North,0,0.0,0.0,92,0.00,CLR,,0.00,WeatherDisplay:10.37,2013-09-19 14:00:00,
2013-09-19 10:01:00,67.7,65.0,30.22,North,0,0.0,0.0,91,0.00,CLR,,0.00,WeatherDisplay:10.37,2013-09-19 14:01:00,
2013-09-19 10:02:00,67.0,64.0,30.22,North,0,0.0,0.0,90,0.00,CLR,,0.00,WeatherDisplay:10.37,2013-09-19 14:02:00,
2013-09-19 10:05:00,67.3,64.3,30.22,North,0,0.0,0.0,90,0.00,CLR,,0.00,WeatherDisplay:10.37,2013-09-19 14:05:00,
2013-09-19 10:06:00,67.2,64.2,30.22,North,0,0.0,0.0,90,0.00,CLR,,0.00,WeatherDisplay:10.37,2013-09-19 14:06:00,
2013-09-19 10:07:00,67.2,64.2,30.22,North,0,0.0,0.0,90,0.00,CLR,,0.00,WeatherDisplay:10.37,2013-09-19 14:07:00,
2013-09-19 10:10:00,67.3,63.9,30.22,North,0,0.0,0.0,89,0.00,CLR,,0.00,WeatherDisplay:10.37,2013-09-19 14:10:00,
2013-09-19 10:11:00,67.4,64.0,30.22,North,0,0.0,0.0,89,0.00,CLR,,0.00,WeatherDisplay:10.37,2013-09-19 14:11:00,
2013-09-19 10:12:00,67.3,63.6,30.22,North,0,0.0,0.0,88,0.00,CLR,,0.00,WeatherDisplay:10.37,2013-09-19 14:12:00,
2013-09-19 10:13:00,67.1,63.1,30.22,North,0,0.0,0.0,87,0.00,CLR,,0.00,WeatherDisplay:10.37,2013-09-19 14:13:00,
2013-09-19 10:15:00,67.6,63.6,30.22,North,0,0.0,0.0,87,0.00,CLR,,0.00,WeatherDisplay:10.37,2013-09-19 14:15:00,
2013-09-19 10:16:00,67.7,63.4,30.22,North,0,0.0,0.0,86,0.00,CLR,,0.00,WeatherDisplay:10.37,2013-09-19 14:16:00,
2013-09-19 10:17:00,67.1,63.1,30.22,North,0,0.0,0.0,87,0.00,CLR,,0.00,WeatherDisplay:10.37,2013-09-19 14:17:00,
2013-09-19 10:19:00,67.7,63.7,30.22,North,0,0.0,0.0,87,0.00,CLR,,0.00,WeatherDisplay:10.37,2013-09-19 14:19:00,
2013-09-19 10:21:00,67.2,62.9,30.22,North,0,0.0,0.0,86,0.00,CLR,,0.00,WeatherDisplay:10.37,2013-09-19 14:21:00,
2013-09-19 10:22:00,67.3,63.0,30.22,North,0,0.0,0.0,86,0.00,CLR,,0.00,WeatherDisplay:10.37,2013-09-19 14:22:00,
2013-09-19 10:24:00,67.9,63.6,30.22,North,0,0.0,0.0,86,0.00,CLR,,0.00,WeatherDisplay:10.37,2013-09-19 14:24:00,
2013-09-19 10:26:00,68.1,63.4,30.22,North,0,0.0,0.0,85,0.00,CLR,,0.00,WeatherDisplay:10.37,2013-09-19 14:26:00,
2013-09-19 10:27:00,67.8,62.8,30.22,North,0,0.0,0.0,84,0.00,CLR,,0.00,WeatherDisplay:10.37,2013-09-19 14:27:00,
2013-09-19 10:30:00,67.8,62.8,30.22,North,0,0.0,0.0,84,0.00,CLR,,0.00,WeatherDisplay:10.37,2013-09-19 14:30:00,
2013-09-19 10:31:00,67.7,62.7,30.22,North,0,0.0,0.0,84,0.00,CLR,,0.00,WeatherDisplay:10.37,2013-09-19 14:31:00,
2013-09-19 10:32:00,67.9,62.9,30.22,North,0,0.0,0.0,84,0.00,CLR,,0.00,WeatherDisplay:10.37,2013-09-19 14:32:00,
2013-09-19 10:35:00,68.1,62.7,30.22,North,0,0.0,0.0,83,0.00,CLR,,0.00,WeatherDisplay:10.37,2013-09-19 14:35:00,
2013-09-19 10:36:00,68.0,62.6,30.22,North,0,0.0,0.0,83,0.00,CLR,,0.00,WeatherDisplay:10.37,2013-09-19 14:36:00,
2013-09-19 10:37:00,67.8,62.4,30.22,North,0,0.0,0.0,83,0.00,CLR,,0.00,WeatherDisplay:10.37,2013-09-19 14:37:00,
2013-09-19 10:38:00,68.1,62.4,30.22,North,0,0.0,0.0,82,0.00,CLR,,0.00,WeatherDisplay:10.37,2013-09-19 14:38:00,
2013-09-19 10:40:00,68.2,62.8,30.22,ESE,123,0.7,3.5,83,0.00,CLR,,0.00,WeatherDisplay:10.37,2013-09-19 14:40:00,
2013-09-19 10:41:00,68.5,63.1,30.22,ESE,123,0.0,0.0,83,0.00,CLR,,0.00,WeatherDisplay:10.37,2013-09-19 14:41:00,
2013-09-19 10:42:00,68.3,62.6,30.22,ESE,123,0.0,0.0,82,0.00,CLR,,0.00,WeatherDisplay:10.37,2013-09-19 14:42:00,
2013-09-19 10:43:00,68.5,62.8,30.22,ESE,123,0.0,0.0,82,0.00,CLR,,0.00,WeatherDisplay:10.37,2013-09-19 14:43:00,
2013-09-19 10:46:00,68.3,62.6,30.22,ESE,123,0.0,0.0,82,0.00,CLR,,0.00,WeatherDisplay:10.37,2013-09-19 14:46:00,
2013-09-19 10:47:00,68.5,62.8,30.22,ESE,123,0.0,0.0,82,0.00,CLR,,0.00,WeatherDisplay:10.37,2013-09-19 14:47:00,
2013-09-19 10:48:00,68.4,62.3,30.22,ESE,123,0.0,0.0,81,0.00,CLR,,0.00,WeatherDisplay:10.37,2013-09-19 14:48:00,
2013-09-19 10:51:00,69.0,62.6,30.21,ESE,123,0.0,0.0,80,0.00,CLR,,0.00,WeatherDisplay:10.37,2013-09-19 14:51:00,
2013-09-19 10:52:00,68.4,62.0,30.21,ESE,123,0.0,0.0,80,0.00,CLR,,0.00,WeatherDisplay:10.37,2013-09-19 14:52:00,
2013-09-19 10:53:00,68.8,62.4,30.22,ESE,123,0.0,0.0,80,0.00,CLR,,0.00,WeatherDisplay:10.37,2013-09-19 14:53:00,
2013-09-19 10:57:00,69.3,62.9,30.22,ESE,123,0.0,0.0,80,0.00,CLR,,0.00,WeatherDisplay:10.37,2013-09-19 14:57:00,
2013-09-19 10:58:00,69.1,62.7,30.22,ESE,123,0.0,0.0,80,0.00,CLR,,0.00,WeatherDisplay:10.37,2013-09-19 14:58:00,
2013-09-19 11:02:00,69.4,62.6,30.22,ESE,123,0.0,0.0,79,0.00,CLR,,0.00,WeatherDisplay:10.37,2013-09-19 15:02:00,
2013-09-19 11:04:00,69.2,62.4,30.22,ESE,123,0.0,0.0,79,0.00,CLR,,0.00,WeatherDisplay:10.37,2013-09-19 15:04:00,
2013-09-19 11:07:00,70.1,62.9,30.22,ESE,123,0.0,0.0,78,0.00,CLR,,0.00,WeatherDisplay:10.37,2013-09-19 15:07:00,
2013-09-19 11:08:00,70.2,62.6,30.22,ESE,123,0.0,0.0,77,0.00,CLR,,0.00,WeatherDisplay:10.37,2013-09-19 15:08:00,
2013-09-19 11:09:00,70.3,62.7,30.22,ESE,123,0.0,0.0,77,0.00,CLR,,0.00,WeatherDisplay:10.37,2013-09-19 15:09:00,
2013-09-19 11:12:00,70.6,62.7,30.22,ESE,123,0.0,0.0,76,0.00,CLR,,0.00,WeatherDisplay:10.37,2013-09-19 15:12:00,
2013-09-19 11:13:00,71.4,63.4,30.22,ESE,123,0.0,0.0,76,0.00,CLR,,0.00,WeatherDisplay:10.37,2013-09-19 15:13:00,
2013-09-19 11:14:00,71.7,63.4,30.22,ESE,106,2.6,5.0,75,0.00,CLR,,0.00,WeatherDisplay:10.37,2013-09-19 15:14:00,
2013-09-19 11:17:00,72.3,64.3,30.22,East,79,0.0,0.0,76,0.00,CLR,,0.00,WeatherDisplay:10.37,2013-09-19 15:17:00,
2013-09-19 11:18:00,72.8,65.2,30.22,East,79,0.0,0.0,77,0.00,CLR,,0.00,WeatherDisplay:10.37,2013-09-19 15:18:00,
2013-09-19 11:19:00,73.1,63.9,30.22,East,79,0.0,0.0,73,0.00,CLR,,0.00,WeatherDisplay:10.37,2013-09-19 15:19:00,
2013-09-19 11:22:00,72.8,62.4,30.22,East,79,0.0,0.0,70,0.00,CLR,,0.00,WeatherDisplay:10.37,2013-09-19 15:22:00,
2013-09-19 11:23:00,72.4,62.5,30.22,East,79,0.0,0.0,71,0.00,CLR,,0.00,WeatherDisplay:10.37,2013-09-19 15:23:00,
2013-09-19 11:24:00,72.8,62.8,30.22,East,79,0.0,0.0,71,0.00,CLR,,0.00,WeatherDisplay:10.37,2013-09-19 15:24:00,
2013-09-19 11:25:00,72.6,63.4,30.22,East,79,0.0,0.0,73,0.00,CLR,,0.00,WeatherDisplay:10.37,2013-09-19 15:25:00,
2013-09-19 11:27:00,72.3,62.4,30.22,NW,320,1.2,4.6,71,0.00,CLR,,0.00,WeatherDisplay:10.37,2013-09-19 15:27:00,
2013-09-19 11:28:00,72.0,62.9,30.21,NW,320,0.0,0.0,73,0.00,CLR,,0.00,WeatherDisplay:10.37,2013-09-19 15:28:00,
2013-09-19 11:29:00,72.0,62.9,30.21,NW,320,0.0,0.0,73,0.00,CLR,,0.00,WeatherDisplay:10.37,2013-09-19 15:29:00,
2013-09-19 11:30:00,72.0,62.1,30.21,NW,320,0.0,0.0,71,0.00,CLR,,0.00,WeatherDisplay:10.37,2013-09-19 15:30:00,
2013-09-19 11:32:00,71.5,62.0,30.21,NW,320,0.0,0.0,72,0.00,CLR,,0.00,WeatherDisplay:10.37,2013-09-19 15:32:00,
2013-09-19 11:34:00,71.5,61.2,30.21,NW,320,0.0,0.0,70,0.00,CLR,,0.00,WeatherDisplay:10.37,2013-09-19 15:34:00,
2013-09-19 11:35:00,71.4,61.9,30.21,NW,320,0.0,0.0,72,0.00,CLR,,0.00,WeatherDisplay:10.37,2013-09-19 15:35:00,
2013-09-19 11:37:00,71.1,61.2,30.21,NW,320,0.0,0.0,71,0.00,CLR,,0.00,WeatherDisplay:10.37,2013-09-19 15:37:00,
2013-09-19 11:39:00,71.5,62.0,30.21,NW,320,0.0,0.0,72,0.00,CLR,,0.00,WeatherDisplay:10.37,2013-09-19 15:39:00,
2013-09-19 11:40:00,70.9,61.4,30.21,NW,320,0.0,0.0,72,0.00,CLR,,0.00,WeatherDisplay:10.37,2013-09-19 15:40:00,
2013-09-19 11:42:00,71.3,61.8,30.21,NW,320,0.0,0.0,72,0.00,CLR,,0.00,WeatherDisplay:10.37,2013-09-19 15:42:00,
2013-09-19 11:44:00,71.3,61.0,30.21,NW,320,0.0,0.0,70,0.00,CLR,,0.00,WeatherDisplay:10.37,2013-09-19 15:44:00,
2013-09-19 11:45:00,71.3,61.4,30.21,NW,320,0.0,0.0,71,0.00,CLR,,0.00,WeatherDisplay:10.37,2013-09-19 15:45:00,
2013-09-19 11:47:00,71.4,61.5,30.21,NW,320,0.0,0.0,71,0.00,CLR,,0.00,WeatherDisplay:10.37,2013-09-19 15:47:00,
2013-09-19 11:49:00,71.4,61.5,30.21,NW,320,0.0,0.0,71,0.00,CLR,,0.00,WeatherDisplay:10.37,2013-09-19 15:49:00,
2013-09-19 11:50:00,71.4,61.5,30.21,NW,320,0.0,0.0,71,0.00,CLR,,0.00,WeatherDisplay:10.37,2013-09-19 15:50:00,
2013-09-19 11:53:00,71.3,61.4,30.21,NW,320,0.0,0.0,71,0.00,CLR,,0.00,WeatherDisplay:10.37,2013-09-19 15:53:00,
2013-09-19 11:54:00,71.1,61.6,30.21,NW,320,0.0,0.0,72,0.00,CLR,,0.00,WeatherDisplay:10.37,2013-09-19 15:54:00,
2013-09-19 11:55:00,70.9,61.4,30.21,NW,320,0.0,0.0,72,0.00,CLR,,0.00,WeatherDisplay:10.37,2013-09-19 15:55:00,
2013-09-19 11:58:00,71.3,61.8,30.21,NW,320,0.0,0.0,72,0.00,CLR,,0.00,WeatherDisplay:10.37,2013-09-19 15:58:00,
2013-09-19 11:59:00,71.3,61.8,30.22,NW,320,0.0,0.0,72,0.00,CLR,,0.00,WeatherDisplay:10.37,2013-09-19 15:59:00,
2013-09-19 12:00:00,71.2,61.7,30.22,NW,320,0.0,0.0,72,0.00,CLR,,0.00,WeatherDisplay:10.37,2013-09-19 16:00:00,
2013-09-19 12:01:00,71.7,61.8,30.22,NW,320,0.0,0.0,71,0.00,CLR,,0.00,WeatherDisplay:10.37,2013-09-19 16:01:00,
2013-09-19 12:03:00,71.6,61.3,30.22,NW,320,0.0,0.0,70,0.00,CLR,,0.00,WeatherDisplay:10.37,2013-09-19 16:03:00,
2013-09-19 12:05:00,71.4,61.5,30.22,NW,320,0.0,0.0,71,0.00,CLR,,0.00,WeatherDisplay:10.37,2013-09-19 16:05:00,
2013-09-19 12:07:00,71.5,61.6,30.22,NW,320,0.0,0.0,71,0.00,CLR,,0.00,WeatherDisplay:10.37,2013-09-19 16:07:00,
2013-09-19 12:08:00,71.5,61.6,30.22,NW,320,0.0,0.0,71,0.00,CLR,,0.00,WeatherDisplay:10.37,2013-09-19 16:08:00,
2013-09-19 12:10:00,71.6,61.3,30.22,NW,320,0.0,0.0,70,0.00,CLR,,0.00,WeatherDisplay:10.37,2013-09-19 16:10:00,
2013-09-19 12:11:00,72.0,61.7,30.22,NW,320,0.0,0.0,70,0.00,CLR,,0.00,WeatherDisplay:10.37,2013-09-19 16:11:00,
2013-09-19 12:12:00,71.6,61.7,30.21,NW,320,0.0,0.0,71,0.00,CLR,,0.00,WeatherDisplay:10.37,2013-09-19 16:12:00,
2013-09-19 12:13:00,72.1,62.6,30.21,NW,320,0.0,0.0,72,0.00,CLR,,0.00,WeatherDisplay:10.37,2013-09-19 16:13:00,
2013-09-19 12:16:00,71.8,61.5,30.21,North,4,0.0,0.0,70,0.00,CLR,,0.00,WeatherDisplay:10.37,2013-09-19 16:16:00,
2013-09-19 12:17:00,72.0,61.3,30.21,North,4,0.0,0.0,69,0.00,CLR,,0.00,WeatherDisplay:10.37,2013-09-19 16:17:00,
2013-09-19 12:18:00,72.1,61.4,30.21,North,4,0.0,0.0,69,0.00,CLR,,0.00,WeatherDisplay:10.37,2013-09-19 16:18:00,
2013-09-19 12:19:00,72.3,61.6,30.21,North,4,0.0,0.0,69,0.00,CLR,,0.00,WeatherDisplay:10.37,2013-09-19 16:19:00,
2013-09-19 12:21:00,72.3,61.6,30.21,North,4,0.0,0.0,69,0.00,CLR,,0.00,WeatherDisplay:10.37,2013-09-19 16:21:00,
2013-09-19 12:23:00,72.2,61.5,30.21,North,4,0.0,0.0,69,0.00,CLR,,0.00,WeatherDisplay:10.37,2013-09-19 16:23:00,
2013-09-19 12:25:00,72.2,61.5,30.21,North,4,0.0,0.0,69,0.00,CLR,,0.00,WeatherDisplay:10.37,2013-09-19 16:25:00,
2013-09-19 12:26:00,72.1,61.4,30.21,North,4,0.0,0.0,69,0.00,CLR,,0.00,WeatherDisplay:10.37,2013-09-19 16:26:00,
2013-09-19 12:28:00,72.6,61.8,30.21,North,4,0.0,0.0,69,0.00,CLR,,0.00,WeatherDisplay:10.37,2013-09-19 16:28:00,
2013-09-19 12:30:00,72.8,62.0,30.21,North,4,0.0,0.0,69,0.00,CLR,,0.00,WeatherDisplay:10.37,2013-09-19 16:30:00,
2013-09-19 12:31:00,72.9,62.1,30.21,North,4,0.0,0.0,69,0.00,CLR,,0.00,WeatherDisplay:10.37,2013-09-19 16:31:00,
2013-09-19 12:33:00,73.2,62.4,30.21,North,4,0.0,0.0,69,0.00,CLR,,0.00,WeatherDisplay:10.37,2013-09-19 16:33:00,
2013-09-19 12:35:00,73.8,62.6,30.21,North,4,0.0,0.0,68,0.00,CLR,,0.00,WeatherDisplay:10.37,2013-09-19 16:35:00,
2013-09-19 12:36:00,73.4,62.2,30.21,North,4,0.0,0.0,68,0.00,CLR,,0.00,WeatherDisplay:10.37,2013-09-19 16:36:00,
2013-09-19 12:38:00,74.0,62.8,30.21,North,4,0.0,0.0,68,0.00,CLR,,0.00,WeatherDisplay:10.37,2013-09-19 16:38:00,
2013-09-19 12:39:00,74.0,62.8,30.21,North,4,0.0,0.0,68,0.00,CLR,,0.00,WeatherDisplay:10.37,2013-09-19 16:39:00,
2013-09-19 12:40:00,74.0,61.5,30.20,North,4,0.0,0.0,65,0.00,CLR,,0.00,WeatherDisplay:10.37,2013-09-19 16:40:00,
2013-09-19 12:42:00,74.1,61.1,30.20,SW,220,4.9,6.9,64,0.00,CLR,,0.00,WeatherDisplay:10.37,2013-09-19 16:42:00,
2013-09-19 12:43:00,74.1,61.1,30.20,WSW,251,2.3,4.6,64,0.00,CLR,,0.00,WeatherDisplay:10.37,2013-09-19 16:43:00,
2013-09-19 12:44:00,74.1,60.7,30.20,WSW,251,0.0,4.6,63,0.00,CLR,,0.00,WeatherDisplay:10.37,2013-09-19 16:44:00,
2013-09-19 12:45:00,74.1,60.7,30.20,WSW,251,0.0,0.0,63,0.00,CLR,,0.00,WeatherDisplay:10.37,2013-09-19 16:45:00,
2013-09-19 12:47:00,74.2,60.8,30.20,WSW,251,0.5,3.5,63,0.00,CLR,,0.00,WeatherDisplay:10.37,2013-09-19 16:47:00,
2013-09-19 12:49:00,74.4,61.4,30.20,SSW,192,0.0,0.0,64,0.00,CLR,,0.00,WeatherDisplay:10.37,2013-09-19 16:49:00,
2013-09-19 12:50:00,74.3,61.3,30.20,North,11,0.0,0.0,64,0.00,CLR,,0.00,WeatherDisplay:10.37,2013-09-19 16:50:00,
2013-09-19 12:51:00,74.9,62.3,30.20,North,11,0.0,0.0,65,0.00,CLR,,0.00,WeatherDisplay:10.37,2013-09-19 16:51:00,
2013-09-19 12:52:00,75.2,61.7,30.20,North,11,0.0,0.0,63,0.00,CLR,,0.00,WeatherDisplay:10.37,2013-09-19 16:52:00,
2013-09-19 12:54:00,75.7,61.8,30.20,North,11,0.0,0.0,62,0.00,CLR,,0.00,WeatherDisplay:10.37,2013-09-19 16:54:00,
2013-09-19 12:55:00,75.5,61.1,30.19,North,11,0.0,0.0,61,0.00,CLR,,0.00,WeatherDisplay:10.37,2013-09-19 16:55:00,
2013-09-19 12:57:00,75.4,60.5,30.19,North,11,0.0,0.0,60,0.00,CLR,,0.00,WeatherDisplay:10.37,2013-09-19 16:57:00,
2013-09-19 12:58:00,75.7,60.8,30.19,North,11,0.0,0.0,60,0.00,CLR,,0.00,WeatherDisplay:10.37,2013-09-19 16:58:00,
2013-09-19 12:59:00,75.6,61.2,30.19,North,11,0.0,0.0,61,0.00,CLR,,0.00,WeatherDisplay:10.37,2013-09-19 16:59:00,
2013-09-19 13:00:00,75.5,61.1,30.19,SW,219,0.3,2.3,61,0.00,CLR,,0.00,WeatherDisplay:10.37,2013-09-19 17:00:00,
2013-09-19 13:02:00,75.6,60.7,30.19,West,260,0.7,4.6,60,0.00,CLR,,0.00,WeatherDisplay:10.37,2013-09-19 17:02:00,
2013-09-19 13:03:00,75.6,60.7,30.19,WNW,294,2.3,5.8,60,0.00,CLR,,0.00,WeatherDisplay:10.37,2013-09-19 17:03:00,
2013-09-19 13:04:00,75.9,61.0,30.19,WNW,294,0.9,3.5,60,0.00,CLR,,0.00,WeatherDisplay:10.37,2013-09-19 17:04:00,
2013-09-19 13:05:00,74.9,60.1,30.19,West,264,0.2,2.1,60,0.00,CLR,,0.00,WeatherDisplay:10.37,2013-09-19 17:05:00,
2013-09-19 13:07:00,74.6,60.3,30.19,West,264,0.0,0.0,61,0.00,CLR,,0.00,WeatherDisplay:10.37,2013-09-19 17:07:00,
2013-09-19 13:08:00,75.2,61.3,30.19,SE,136,0.7,4.6,62,0.00,CLR,,0.00,WeatherDisplay:10.37,2013-09-19 17:08:00,
2013-09-19 13:09:00,75.0,61.1,30.19,ESE,123,3.1,8.1,62,0.00,CLR,,0.00,WeatherDisplay:10.37,2013-09-19 17:09:00,
2013-09-19 13:10:00,74.6,60.7,30.19,ESE,123,0.0,0.0,62,0.00,CLR,,0.00,WeatherDisplay:10.37,2013-09-19 17:10:00,
2013-09-19 13:12:00,74.7,60.8,30.19,ESE,123,0.0,0.0,62,0.00,CLR,,0.00,WeatherDisplay:10.37,2013-09-19 17:12:00,
2013-09-19 13:13:00,74.5,60.6,30.19,ESE,123,0.0,0.0,62,0.00,CLR,,0.00,WeatherDisplay:10.37,2013-09-19 17:13:00,
2013-09-19 13:14:00,74.4,60.5,30.19,ESE,123,0.0,0.0,62,0.00,CLR,,0.00,WeatherDisplay:10.37,2013-09-19 17:14:00,
2013-09-19 13:16:00,74.4,61.0,30.19,ESE,123,0.0,0.0,63,0.00,CLR,,0.00,WeatherDisplay:10.37,2013-09-19 17:16:00,
2013-09-19 13:17:00,74.5,61.1,30.19,ESE,123,0.0,0.0,63,0.00,CLR,,0.00,WeatherDisplay:10.37,2013-09-19 17:17:00,
2013-09-19 13:18:00,74.3,60.9,30.19,ESE,123,0.0,0.0,63,0.00,CLR,,0.00,WeatherDisplay:10.37,2013-09-19 17:18:00,
2013-09-19 13:19:00,74.4,61.0,30.19,ESE,123,0.0,0.0,63,0.00,CLR,,0.00,WeatherDisplay:10.37,2013-09-19 17:19:00,
2013-09-19 13:21:00,74.2,60.3,30.19,ESE,123,0.0,0.0,62,0.00,CLR,,0.00,WeatherDisplay:10.37,2013-09-19 17:21:00,
2013-09-19 13:22:00,74.3,60.4,30.19,ESE,123,0.0,0.0,62,0.00,CLR,,0.00,WeatherDisplay:10.37,2013-09-19 17:22:00,
2013-09-19 13:23:00,74.1,60.7,30.19,ESE,123,0.0,0.0,63,0.00,CLR,,0.00,WeatherDisplay:10.37,2013-09-19 17:23:00,
2013-09-19 13:24:00,74.1,60.7,30.19,ESE,123,0.0,0.0,63,0.00,CLR,,0.00,WeatherDisplay:10.37,2013-09-19 17:24:00,
2013-09-19 13:27:00,74.1,61.1,30.19,ESE,123,0.0,0.0,64,0.00,CLR,,0.00,WeatherDisplay:10.37,2013-09-19 17:27:00,
2013-09-19 13:28:00,74.1,61.6,30.19,ESE,123,0.0,0.0,65,0.00,CLR,,0.00,WeatherDisplay:10.37,2013-09-19 17:28:00,
2013-09-19 13:29:00,74.1,62.0,30.19,ESE,123,0.0,0.0,66,0.00,CLR,,0.00,WeatherDisplay:10.37,2013-09-19 17:29:00,
2013-09-19 13:30:00,74.1,61.6,30.19,ESE,123,0.0,0.0,65,0.00,CLR,,0.00,WeatherDisplay:10.37,2013-09-19 17:30:00,
2013-09-19 13:32:00,74.1,62.0,30.19,ESE,123,0.0,0.0,66,0.00,CLR,,0.00,WeatherDisplay:10.37,2013-09-19 17:32:00,
2013-09-19 13:33:00,74.1,61.6,30.19,ESE,123,0.0,0.0,65,0.00,CLR,,0.00,WeatherDisplay:10.37,2013-09-19 17:33:00,
2013-09-19 13:34:00,74.1,61.6,30.19,ESE,123,0.0,0.0,65,0.00,CLR,,0.00,WeatherDisplay:10.37,2013-09-19 17:34:00,
2013-09-19 13:35:00,73.9,61.8,30.19,ESE,123,0.0,0.0,66,0.00,CLR,,0.00,WeatherDisplay:10.37,2013-09-19 17:35:00,
2013-09-19 13:37:00,73.6,61.5,30.19,ESE,123,0.0,0.0,66,0.00,CLR,,0.00,WeatherDisplay:10.37,2013-09-19 17:37:00,
2013-09-19 13:38:00,74.0,62.3,30.18,ESE,123,0.0,0.0,67,0.00,CLR,,0.00,WeatherDisplay:10.37,2013-09-19 17:38:00,
2013-09-19 13:39:00,73.7,62.5,30.18,ESE,123,0.0,0.0,68,0.00,CLR,,0.00,WeatherDisplay:10.37,2013-09-19 17:39:00,
2013-09-19 13:40:00,73.5,62.3,30.18,ESE,123,0.0,0.0,68,0.00,CLR,,0.00,WeatherDisplay:10.37,2013-09-19 17:40:00,
2013-09-19 13:42:00,73.7,62.5,30.18,ESE,123,0.0,0.0,68,0.00,CLR,,0.00,WeatherDisplay:10.37,2013-09-19 17:42:00,
2013-09-19 13:43:00,73.7,62.5,30.18,ESE,123,0.0,0.0,68,0.00,CLR,,0.00,WeatherDisplay:10.37,2013-09-19 17:43:00,
2013-09-19 13:44:00,73.8,62.6,30.18,SSW,206,0.8,3.5,68,0.00,CLR,,0.00,WeatherDisplay:10.37,2013-09-19 17:44:00,
2013-09-19 13:45:00,73.9,62.7,30.18,SSW,206,0.0,3.5,68,0.00,CLR,,0.00,WeatherDisplay:10.37,2013-09-19 17:45:00,
2013-09-19 13:47:00,73.9,62.2,30.18,SSW,206,0.0,0.0,67,0.00,CLR,,0.00,WeatherDisplay:10.37,2013-09-19 17:47:00,
2013-09-19 13:48:00,74.0,62.3,30.18,SSW,206,0.0,0.0,67,0.00,CLR,,0.00,WeatherDisplay:10.37,2013-09-19 17:48:00,
2013-09-19 13:49:00,74.0,62.8,30.18,SSW,206,0.0,0.0,68,0.00,CLR,,0.00,WeatherDisplay:10.37,2013-09-19 17:49:00,
2013-09-19 13:50:00,74.0,62.8,30.18,SSW,206,0.0,0.0,68,0.00,CLR,,0.00,WeatherDisplay:10.37,2013-09-19 17:50:00,
2013-09-19 13:53:00,74.0,62.8,30.18,SSW,206,0.0,0.0,68,0.00,CLR,,0.00,WeatherDisplay:10.37,2013-09-19 17:53:00,
2013-09-19 13:54:00,74.0,62.8,30.18,SSW,206,0.0,0.0,68,0.00,CLR,,0.00,WeatherDisplay:10.37,2013-09-19 17:54:00,
2013-09-19 13:55:00,74.0,62.8,30.18,SSW,206,0.0,0.0,68,0.00,CLR,,0.00,WeatherDisplay:10.37,2013-09-19 17:55:00,
2013-09-19 13:58:00,74.1,62.9,30.18,SSW,206,0.0,0.0,68,0.00,CLR,,0.00,WeatherDisplay:10.37,2013-09-19 17:58:00,
2013-09-19 13:59:00,74.0,62.3,30.17,SSW,206,0.0,0.0,67,0.00,CLR,,0.00,WeatherDisplay:10.37,2013-09-19 17:59:00,
2013-09-19 14:00:00,74.1,62.9,30.17,SSW,206,0.0,0.0,68,0.00,CLR,,0.00,WeatherDisplay:10.37,2013-09-19 18:00:00,
2013-09-19 14:03:00,74.1,62.4,30.17,SSW,206,0.0,0.0,67,0.00,CLR,,0.00,WeatherDisplay:10.37,2013-09-19 18:03:00,
2013-09-19 14:04:00,74.1,62.4,30.17,SSW,206,0.0,0.0,67,0.00,CLR,,0.00,WeatherDisplay:10.37,2013-09-19 18:04:00,
2013-09-19 14:05:00,74.1,62.4,30.17,SSW,206,0.0,0.0,67,0.00,CLR,,0.00,WeatherDisplay:10.37,2013-09-19 18:05:00,
2013-09-19 14:06:00,74.1,62.4,30.17,SSW,206,0.6,3.2,67,0.00,CLR,,0.00,WeatherDisplay:10.37,2013-09-19 18:06:00,
2013-09-19 14:08:00,74.2,62.5,30.17,ESE,112,3.3,5.8,67,0.00,CLR,,0.00,WeatherDisplay:10.37,2013-09-19 18:08:00,
2013-09-19 14:10:00,74.2,62.5,30.17,ESE,112,0.0,0.0,67,0.00,CLR,,0.00,WeatherDisplay:10.37,2013-09-19 18:10:00,
2013-09-19 14:11:00,74.2,62.5,30.17,ESE,112,0.0,0.0,67,0.00,CLR,,0.00,WeatherDisplay:10.37,2013-09-19 18:11:00,
2013-09-19 14:13:00,74.1,62.0,30.17,ESE,112,0.0,0.0,66,0.00,CLR,,0.00,WeatherDisplay:10.37,2013-09-19 18:13:00,
2013-09-19 14:14:00,74.2,62.1,30.17,ESE,112,0.0,0.0,66,0.00,CLR,,0.00,WeatherDisplay:10.37,2013-09-19 18:14:00,
2013-09-19 14:15:00,74.4,62.3,30.17,ESE,112,0.0,0.0,66,0.00,CLR,,0.00,WeatherDisplay:10.37,2013-09-19 18:15:00,
2013-09-19 14:16:00,74.2,62.1,30.17,ESE,112,0.0,0.0,66,0.00,CLR,,0.00,WeatherDisplay:10.37,2013-09-19 18:16:00,
2013-09-19 14:19:00,74.1,62.0,30.17,NNE,21,0.0,0.0,66,0.00,CLR,,0.00,WeatherDisplay:10.37,2013-09-19 18:19:00,
2013-09-19 14:20:00,74.2,62.5,30.17,NNE,21,0.0,0.0,67,0.00,CLR,,0.00,WeatherDisplay:10.37,2013-09-19 18:20:00,
2013-09-19 14:21:00,74.1,62.4,30.17,NNE,21,0.0,0.0,67,0.00,CLR,,0.00,WeatherDisplay:10.37,2013-09-19 18:21:00,
2013-09-19 14:24:00,74.2,62.1,30.17,NNE,21,0.0,0.0,66,0.00,CLR,,0.00,WeatherDisplay:10.37,2013-09-19 18:24:00,
2013-09-19 14:25:00,74.4,62.3,30.17,NNE,21,0.0,0.0,66,0.00,CLR,,0.00,WeatherDisplay:10.37,2013-09-19 18:25:00,
2013-09-19 14:26:00,74.1,62.0,30.17,NNE,21,0.0,0.0,66,0.00,CLR,,0.00,WeatherDisplay:10.37,2013-09-19 18:26:00,
2013-09-19 14:29:00,74.2,62.1,30.17,NNE,21,0.0,0.0,66,0.00,CLR,,0.00,WeatherDisplay:10.37,2013-09-19 18:29:00,
2013-09-19 14:30:00,74.2,62.1,30.17,NNE,21,0.0,0.0,66,0.00,CLR,,0.00,WeatherDisplay:10.37,2013-09-19 18:30:00,
2013-09-19 14:31:00,74.5,62.4,30.17,NNE,21,0.0,0.0,66,0.00,CLR,,0.00,WeatherDisplay:10.37,2013-09-19 18:31:00,
2013-09-19 14:32:00,74.2,62.1,30.17,NNE,21,0.0,0.0,66,0.00,CLR,,0.00,WeatherDisplay:10.37,2013-09-19 18:32:00,
2013-09-19 14:34:00,74.1,62.0,30.17,NNE,21,0.0,0.0,66,0.00,CLR,,0.00,WeatherDisplay:10.37,2013-09-19 18:34:00,
2013-09-19 14:35:00,74.1,62.0,30.17,NNE,21,0.0,0.0,66,0.00,CLR,,0.00,WeatherDisplay:10.37,2013-09-19 18:35:00,
2013-09-19 14:36:00,74.1,62.0,30.17,NNE,21,0.0,0.0,66,0.00,CLR,,0.00,WeatherDisplay:10.37,2013-09-19 18:36:00,
2013-09-19 14:37:00,74.1,62.4,30.17,NNE,21,0.0,0.0,67,0.00,CLR,,0.00,WeatherDisplay:10.37,2013-09-19 18:37:00,
2013-09-19 14:40:00,74.1,62.4,30.16,NNE,21,0.0,0.0,67,0.00,CLR,,0.00,WeatherDisplay:10.37,2013-09-19 18:40:00,
2013-09-19 14:41:00,74.1,62.0,30.16,NNE,21,0.0,0.0,66,0.00,CLR,,0.00,WeatherDisplay:10.37,2013-09-19 18:41:00,
2013-09-19 14:43:00,74.1,62.0,30.16,NNE,21,0.0,0.0,66,0.00,CLR,,0.00,WeatherDisplay:10.37,2013-09-19 18:43:00,
2013-09-19 14:45:00,74.1,62.0,30.16,NNE,21,0.0,0.0,66,0.00,CLR,,0.00,WeatherDisplay:10.37,2013-09-19 18:45:00,
2013-09-19 14:46:00,74.2,62.1,30.16,NNE,21,0.0,0.0,66,0.00,CLR,,0.00,WeatherDisplay:10.37,2013-09-19 18:46:00,
2013-09-19 14:48:00,74.1,62.4,30.16,NNE,21,0.0,0.0,67,0.00,CLR,,0.00,WeatherDisplay:10.37,2013-09-19 18:48:00,
2013-09-19 14:50:00,74.6,62.9,30.16,NNE,21,0.0,0.0,67,0.00,CLR,,0.00,WeatherDisplay:10.37,2013-09-19 18:50:00,
2013-09-19 14:51:00,74.4,62.7,30.16,NNE,21,0.0,0.0,67,0.00,CLR,,0.00,WeatherDisplay:10.37,2013-09-19 18:51:00,
2013-09-19 14:53:00,74.5,62.0,30.16,South,172,2.0,4.6,65,0.00,CLR,,0.00,WeatherDisplay:10.37,2013-09-19 18:53:00,
2013-09-19 14:55:00,74.5,62.0,30.16,East,80,0.9,6.9,65,0.00,CLR,,0.00,WeatherDisplay:10.37,2013-09-19 18:55:00,
2013-09-19 14:56:00,74.5,62.0,30.16,East,80,0.0,6.9,65,0.00,CLR,,0.00,WeatherDisplay:10.37,2013-09-19 18:56:00,
2013-09-19 14:59:00,74.9,62.8,30.16,East,80,0.0,0.0,66,0.00,CLR,,0.00,WeatherDisplay:10.37,2013-09-19 18:59:00,
2013-09-19 15:01:00,75.1,63.0,30.16,East,80,0.0,0.0,66,0.00,CLR,,0.00,WeatherDisplay:10.37,2013-09-19 19:01:00,
2013-09-19 15:04:00,76.0,62.9,30.16,ESE,113,0.8,3.5,64,0.00,CLR,,0.00,WeatherDisplay:10.37,2013-09-19 19:04:00,
2013-09-19 15:06:00,76.0,62.0,30.16,ESE,113,0.0,0.0,62,0.00,CLR,,0.00,WeatherDisplay:10.37,2013-09-19 19:06:00,
2013-09-19 15:07:00,75.9,61.9,30.16,ESE,113,0.0,0.0,62,0.00,CLR,,0.00,WeatherDisplay:10.37,2013-09-19 19:07:00,
2013-09-19 15:08:00,76.0,62.0,30.16,South,171,2.3,5.3,62,0.00,CLR,,0.00,WeatherDisplay:10.37,2013-09-19 19:08:00,
2013-09-19 15:09:00,76.0,62.0,30.16,ESE,106,2.5,5.8,62,0.00,CLR,,0.00,WeatherDisplay:10.37,2013-09-19 19:09:00,
2013-09-19 15:11:00,76.3,62.3,30.16,ESE,106,0.0,4.6,62,0.00,CLR,,0.00,WeatherDisplay:10.37,2013-09-19 19:11:00,
2013-09-19 15:12:00,76.0,62.0,30.16,ESE,106,0.0,0.0,62,0.00,CLR,,0.00,WeatherDisplay:10.37,2013-09-19 19:12:00,
2013-09-19 15:13:00,76.1,62.1,30.16,ESE,106,0.0,0.0,62,0.00,CLR,,0.00,WeatherDisplay:10.37,2013-09-19 19:13:00,
2013-09-19 15:14:00,76.1,62.1,30.16,ENE,62,1.5,5.8,62,0.00,CLR,,0.00,WeatherDisplay:10.37,2013-09-19 19:14:00,
2013-09-19 15:16:00,76.1,61.2,30.16,East,99,4.1,5.8,60,0.00,CLR,,0.00,WeatherDisplay:10.37,2013-09-19 19:16:00,
2013-09-19 15:17:00,76.1,61.2,30.16,East,92,3.0,5.8,60,0.00,CLR,,0.00,WeatherDisplay:10.37,2013-09-19 19:17:00,
2013-09-19 15:19:00,75.9,61.5,30.16,East,92,0.0,0.0,61,0.00,CLR,,0.00,WeatherDisplay:10.37,2013-09-19 19:19:00,
2013-09-19 15:20:00,75.9,61.5,30.15,East,92,0.0,0.0,61,0.00,CLR,,0.00,WeatherDisplay:10.37,2013-09-19 19:20:00,
2013-09-19 15:21:00,76.0,61.6,30.16,East,92,0.0,0.0,61,0.00,CLR,,0.00,WeatherDisplay:10.37,2013-09-19 19:21:00,
2013-09-19 15:22:00,75.9,61.5,30.16,East,92,0.0,0.0,61,0.00,CLR,,0.00,WeatherDisplay:10.37,2013-09-19 19:22:00,
2013-09-19 15:24:00,76.1,61.7,30.15,East,92,0.0,0.0,61,0.00,CLR,,0.00,WeatherDisplay:10.37,2013-09-19 19:24:00,
2013-09-19 15:25:00,75.5,61.6,30.16,East,92,0.0,0.0,62,0.00,CLR,,0.00,WeatherDisplay:10.37,2013-09-19 19:25:00,
2013-09-19 15:26:00,76.1,62.1,30.15,East,92,0.0,0.0,62,0.00,CLR,,0.00,WeatherDisplay:10.37,2013-09-19 19:26:00,
2013-09-19 15:27:00,75.9,61.9,30.15,East,92,0.0,0.0,62,0.00,CLR,,0.00,WeatherDisplay:10.37,2013-09-19 19:27:00,
2013-09-19 15:29:00,75.5,62.0,30.15,East,92,0.0,0.0,63,0.00,CLR,,0.00,WeatherDisplay:10.37,2013-09-19 19:29:00,
2013-09-19 15:30:00,75.8,62.3,30.15,East,92,0.0,0.0,63,0.00,CLR,,0.00,WeatherDisplay:10.37,2013-09-19 19:30:00,
2013-09-19 15:32:00,75.2,61.7,30.15,East,92,0.0,0.0,63,0.00,CLR,,0.00,WeatherDisplay:10.37,2013-09-19 19:32:00,
2013-09-19 15:34:00,75.4,62.4,30.15,East,92,0.0,0.0,64,0.00,CLR,,0.00,WeatherDisplay:10.37,2013-09-19 19:34:00,
2013-09-19 15:35:00,74.5,61.5,30.15,East,92,0.0,0.0,64,0.00,CLR,,0.00,WeatherDisplay:10.37,2013-09-19 19:35:00,
2013-09-19 15:37:00,74.7,62.1,30.15,East,92,0.0,0.0,65,0.00,CLR,,0.00,WeatherDisplay:10.37,2013-09-19 19:37:00,
2013-09-19 15:38:00,75.1,63.0,30.14,ESE,110,3.4,6.2,66,0.00,CLR,,0.00,WeatherDisplay:10.37,2013-09-19 19:38:00,
2013-09-19 15:39:00,74.6,62.5,30.14,ESE,119,3.9,8.1,66,0.00,CLR,,0.00,WeatherDisplay:10.37,2013-09-19 19:39:00,
2013-09-19 15:40:00,74.6,62.5,30.14,East,89,4.9,6.9,66,0.00,CLR,,0.00,WeatherDisplay:10.37,2013-09-19 19:40:00,
2013-09-19 15:42:00,74.6,62.5,30.14,NE,40,0.0,5.8,66,0.00,CLR,,0.00,WeatherDisplay:10.37,2013-09-19 19:42:00,
2013-09-19 15:43:00,75.0,63.3,30.14,NE,40,0.0,0.0,67,0.00,CLR,,0.00,WeatherDisplay:10.37,2013-09-19 19:43:00,
2013-09-19 15:44:00,74.8,63.1,30.14,NE,40,0.0,0.0,67,0.00,CLR,,0.00,WeatherDisplay:10.37,2013-09-19 19:44:00,
2013-09-19 15:45:00,74.7,63.4,30.15,NE,40,0.2,3.5,68,0.00,CLR,,0.00,WeatherDisplay:10.37,2013-09-19 19:45:00,
2013-09-19 15:47:00,75.2,63.9,30.14,NE,40,0.0,3.5,68,0.00,CLR,,0.00,WeatherDisplay:10.37,2013-09-19 19:47:00,
2013-09-19 15:48:00,75.1,63.4,30.14,NE,40,0.0,0.0,67,0.00,CLR,,0.00,WeatherDisplay:10.37,2013-09-19 19:48:00,
2013-09-19 15:49:00,75.0,63.3,30.14,NE,40,0.0,0.0,67,0.00,CLR,,0.00,WeatherDisplay:10.37,2013-09-19 19:49:00,
2013-09-19 15:50:00,75.2,63.5,30.14,NE,40,0.0,0.0,67,0.00,CLR,,0.00,WeatherDisplay:10.37,2013-09-19 19:50:00,
2013-09-19 15:52:00,74.7,63.0,30.14,NE,40,0.0,0.0,67,0.00,CLR,,0.00,WeatherDisplay:10.37,2013-09-19 19:52:00,
2013-09-19 15:53:00,74.9,63.2,30.14,South,179,0.5,3.4,67,0.00,CLR,,0.00,WeatherDisplay:10.37,2013-09-19 19:53:00,
2013-09-19 15:54:00,75.0,63.3,30.14,South,179,0.0,0.0,67,0.00,CLR,,0.00,WeatherDisplay:10.37,2013-09-19 19:54:00,
2013-09-19 15:56:00,74.9,62.8,30.14,South,179,0.0,0.0,66,0.00,CLR,,0.00,WeatherDisplay:10.37,2013-09-19 19:56:00,
2013-09-19 15:57:00,74.7,63.0,30.14,South,179,0.0,0.0,67,0.00,CLR,,0.00,WeatherDisplay:10.37,2013-09-19 19:57:00,
2013-09-19 15:58:00,75.0,63.3,30.14,South,179,0.0,0.0,67,0.00,CLR,,0.00,WeatherDisplay:10.37,2013-09-19 19:58:00,
2013-09-19 15:59:00,74.3,62.6,30.14,South,179,0.0,0.0,67,0.00,CLR,,0.00,WeatherDisplay:10.37,2013-09-19 19:59:00,
2013-09-19 16:01:00,74.7,63.0,30.14,South,179,0.0,0.0,67,0.00,CLR,,0.00,WeatherDisplay:10.37,2013-09-19 20:01:00,
2013-09-19 16:03:00,74.8,63.1,30.14,South,179,0.0,0.0,67,0.00,CLR,,0.00,WeatherDisplay:10.37,2013-09-19 20:03:00,
2013-09-19 16:05:00,74.3,62.6,30.14,ESE,119,0.9,3.4,67,0.00,CLR,,0.00,WeatherDisplay:10.37,2013-09-19 20:05:00,
2013-09-19 16:06:00,74.5,63.2,30.14,ESE,106,0.0,0.0,68,0.00,CLR,,0.00,WeatherDisplay:10.37,2013-09-19 20:06:00,
2013-09-19 16:08:00,74.8,63.5,30.14,ESE,106,0.0,0.0,68,0.00,CLR,,0.00,WeatherDisplay:10.37,2013-09-19 20:08:00,
2013-09-19 16:10:00,74.4,63.1,30.14,East,99,1.9,5.8,68,0.00,CLR,,0.00,WeatherDisplay:10.37,2013-09-19 20:10:00,
2013-09-19 16:11:00,75.0,63.7,30.14,ENE,73,0.9,4.6,68,0.00,CLR,,0.00,WeatherDisplay:10.37,2013-09-19 20:11:00,
2013-09-19 16:13:00,74.5,63.2,30.14,ENE,73,0.0,0.0,68,0.00,CLR,,0.00,WeatherDisplay:10.37,2013-09-19 20:13:00,
2013-09-19 16:15:00,74.8,63.5,30.14,SSE,150,5.2,6.9,68,0.00,CLR,,0.00,WeatherDisplay:10.37,2013-09-19 20:15:00,
2013-09-19 16:16:00,75.2,63.9,30.14,SSE,148,2.5,6.9,68,0.00,CLR,,0.00,WeatherDisplay:10.37,2013-09-19 20:16:00,
2013-09-19 16:18:00,75.3,64.0,30.14,SE,133,0.0,0.0,68,0.00,CLR,,0.00,WeatherDisplay:10.37,2013-09-19 20:18:00,
2013-09-19 16:21:00,75.2,63.5,30.14,East,96,2.0,5.8,67,0.00,CLR,,0.00,WeatherDisplay:10.37,2013-09-19 20:21:00,
2013-09-19 16:22:00,75.2,63.5,30.14,ESE,117,2.3,4.6,67,0.00,CLR,,0.00,WeatherDisplay:10.37,2013-09-19 20:22:00,
2013-09-19 16:23:00,75.5,63.8,30.14,ENE,73,0.2,3.5,67,0.00,CLR,,0.00,WeatherDisplay:10.37,2013-09-19 20:23:00,
2013-09-19 16:24:00,75.4,63.7,30.14,ENE,73,0.0,3.5,67,0.00,CLR,,0.00,WeatherDisplay:10.37,2013-09-19 20:24:00,
2013-09-19 16:26:00,75.5,63.3,30.14,SSE,155,4.1,5.3,66,0.00,CLR,,0.00,WeatherDisplay:10.37,2013-09-19 20:26:00,
2013-09-19 16:27:00,75.5,63.8,30.14,SE,127,3.5,6.9,67,0.00,CLR,,0.00,WeatherDisplay:10.37,2013-09-19 20:27:00,
2013-09-19 16:28:00,75.4,63.2,30.14,SE,137,0.4,2.3,66,0.00,CLR,,0.00,WeatherDisplay:10.37,2013-09-19 20:28:00,
2013-09-19 16:29:00,75.7,63.5,30.14,SE,137,0.0,2.3,66,0.00,CLR,,0.00,WeatherDisplay:10.37,2013-09-19 20:29:00,
2013-09-19 16:31:00,75.7,63.5,30.14,ESE,106,1.0,4.6,66,0.00,CLR,,0.00,WeatherDisplay:10.37,2013-09-19 20:31:00,
2013-09-19 16:32:00,75.4,63.2,30.14,ESE,106,0.0,0.0,66,0.00,CLR,,0.00,WeatherDisplay:10.37,2013-09-19 20:32:00,
2013-09-19 16:33:00,75.4,63.2,30.14,ESE,106,5.4,6.9,66,0.00,CLR,,0.00,WeatherDisplay:10.37,2013-09-19 20:33:00,
2013-09-19 16:34:00,75.5,63.3,30.14,SE,124,3.7,6.9,66,0.00,CLR,,0.00,WeatherDisplay:10.37,2013-09-19 20:34:00,
2013-09-19 16:36:00,75.4,63.2,30.14,ENE,62,0.0,0.0,66,0.00,CLR,,0.00,WeatherDisplay:10.37,2013-09-19 20:36:00,
2013-09-19 16:37:00,75.4,63.2,30.14,SE,126,0.9,3.5,66,0.00,CLR,,0.00,WeatherDisplay:10.37,2013-09-19 20:37:00,
2013-09-19 16:39:00,75.2,63.1,30.14,ESE,116,2.4,4.6,66,0.00,CLR,,0.00,WeatherDisplay:10.37,2013-09-19 20:39:00,
2013-09-19 16:42:00,75.3,63.6,30.14,East,90,0.0,0.0,67,0.00,CLR,,0.00,WeatherDisplay:10.37,2013-09-19 20:42:00,
2013-09-19 16:43:00,74.7,63.0,30.14,East,90,0.0,0.0,67,0.00,CLR,,0.00,WeatherDisplay:10.37,2013-09-19 20:43:00,
2013-09-19 16:44:00,75.3,63.6,30.14,East,90,0.0,0.0,67,0.00,CLR,,0.00,WeatherDisplay:10.37,2013-09-19 20:44:00,
2013-09-19 16:48:00,75.0,63.7,30.14,East,90,0.0,0.0,68,0.00,CLR,,0.00,WeatherDisplay:10.37,2013-09-19 20:48:00,
2013-09-19 16:49:00,75.3,64.0,30.14,East,90,0.0,0.0,68,0.00,CLR,,0.00,WeatherDisplay:10.37,2013-09-19 20:49:00,
2013-09-19 16:50:00,75.3,64.0,30.14,East,90,0.0,0.0,68,0.00,CLR,,0.00,WeatherDisplay:10.37,2013-09-19 20:50:00,
2013-09-19 16:53:00,74.8,63.5,30.14,SSE,147,0.8,3.1,68,0.00,CLR,,0.00,WeatherDisplay:10.37,2013-09-19 20:53:00,
2013-09-19 16:54:00,74.7,63.4,30.14,SE,134,1.3,3.2,68,0.00,CLR,,0.00,WeatherDisplay:10.37,2013-09-19 20:54:00,
2013-09-19 16:55:00,74.6,63.8,30.14,SE,134,0.0,1.2,69,0.00,CLR,,0.00,WeatherDisplay:10.37,2013-09-19 20:55:00,
2013-09-19 16:58:00,74.7,63.9,30.14,ESE,102,0.0,0.0,69,0.00,CLR,,0.00,WeatherDisplay:10.37,2013-09-19 20:58:00,
2013-09-19 16:59:00,74.2,63.8,30.14,ESE,102,0.0,0.0,70,0.00,CLR,,0.00,WeatherDisplay:10.37,2013-09-19 20:59:00,
2013-09-19 17:00:00,74.1,63.7,30.14,ESE,102,0.0,0.0,70,0.00,CLR,,0.00,WeatherDisplay:10.37,2013-09-19 21:00:00,
2013-09-19 17:04:00,74.3,63.9,30.14,ESE,116,0.0,0.0,70,0.00,CLR,,0.00,WeatherDisplay:10.37,2013-09-19 21:04:00,
2013-09-19 17:05:00,74.1,63.7,30.14,ESE,116,0.0,0.0,70,0.00,CLR,,0.00,WeatherDisplay:10.37,2013-09-19 21:05:00,
2013-09-19 17:09:00,74.1,64.1,30.14,ESE,116,0.0,0.0,71,0.00,CLR,,0.00,WeatherDisplay:10.37,2013-09-19 21:09:00,
2013-09-19 17:10:00,74.1,64.1,30.14,ESE,116,0.0,0.0,71,0.00,CLR,,0.00,WeatherDisplay:10.37,2013-09-19 21:10:00,
2013-09-19 17:11:00,74.2,64.6,30.14,ESE,116,0.0,0.0,72,0.00,CLR,,0.00,WeatherDisplay:10.37,2013-09-19 21:11:00,
2013-09-19 17:14:00,74.1,64.5,30.14,ESE,116,0.0,0.0,72,0.00,CLR,,0.00,WeatherDisplay:10.37,2013-09-19 21:14:00,
2013-09-19 17:16:00,74.1,64.5,30.14,ESE,116,0.0,0.0,72,0.00,CLR,,0.00,WeatherDisplay:10.37,2013-09-19 21:16:00,
2013-09-19 17:19:00,74.1,64.5,30.14,ESE,116,0.0,0.0,72,0.00,CLR,,0.00,WeatherDisplay:10.37,2013-09-19 21:19:00,
2013-09-19 17:20:00,74.1,64.5,30.14,ESE,116,0.0,0.0,72,0.00,CLR,,0.00,WeatherDisplay:10.37,2013-09-19 21:20:00,
2013-09-19 17:21:00,74.1,64.5,30.14,ESE,116,0.0,0.0,72,0.00,CLR,,0.00,WeatherDisplay:10.37,2013-09-19 21:21:00,
2013-09-19 17:22:00,74.1,64.5,30.14,ESE,116,0.0,0.0,72,0.00,CLR,,0.00,WeatherDisplay:10.37,2013-09-19 21:22:00,
2013-09-19 17:24:00,74.2,64.6,30.14,ESE,116,0.0,0.0,72,0.00,CLR,,0.00,WeatherDisplay:10.37,2013-09-19 21:24:00,
2013-09-19 17:25:00,74.3,64.7,30.14,ESE,116,0.0,0.0,72,0.00,CLR,,0.00,WeatherDisplay:10.37,2013-09-19 21:25:00,
2013-09-19 17:26:00,74.3,64.7,30.14,ESE,116,0.0,0.0,72,0.00,CLR,,0.00,WeatherDisplay:10.37,2013-09-19 21:26:00,
2013-09-19 17:28:00,74.2,64.6,30.14,ESE,116,0.0,0.0,72,0.00,CLR,,0.00,WeatherDisplay:10.37,2013-09-19 21:28:00,
2013-09-19 17:29:00,74.2,64.2,30.14,ESE,116,0.0,0.0,71,0.00,CLR,,0.00,WeatherDisplay:10.37,2013-09-19 21:29:00,
2013-09-19 17:30:00,74.1,64.1,30.14,ESE,116,0.0,0.0,71,0.00,CLR,,0.00,WeatherDisplay:10.37,2013-09-19 21:30:00,
2013-09-19 17:31:00,74.1,64.5,30.14,ESE,116,0.0,0.0,72,0.00,CLR,,0.00,WeatherDisplay:10.37,2013-09-19 21:31:00,
2013-09-19 17:33:00,74.1,64.5,30.14,ESE,116,0.0,0.0,72,0.00,CLR,,0.00,WeatherDisplay:10.37,2013-09-19 21:33:00,
2013-09-19 17:34:00,73.9,64.3,30.14,ESE,116,0.0,0.0,72,0.00,CLR,,0.00,WeatherDisplay:10.37,2013-09-19 21:34:00,
2013-09-19 17:35:00,74.1,64.5,30.14,ESE,116,0.0,0.0,72,0.00,CLR,,0.00,WeatherDisplay:10.37,2013-09-19 21:35:00,
2013-09-19 17:38:00,74.2,65.0,30.14,ESE,116,0.0,0.0,73,0.00,CLR,,0.00,WeatherDisplay:10.37,2013-09-19 21:38:00,
2013-09-19 17:39:00,74.0,64.8,30.14,ESE,103,3.5,0.0,73,0.00,CLR,,0.00,WeatherDisplay:10.37,2013-09-19 21:39:00,
2013-09-19 17:41:00,74.1,64.9,30.14,East,80,1.0,6.9,73,0.00,CLR,,0.00,WeatherDisplay:10.37,2013-09-19 21:41:00,
2013-09-19 17:43:00,74.0,64.8,30.14,ESE,106,1.5,3.0,73,0.00,CLR,,0.00,WeatherDisplay:10.37,2013-09-19 21:43:00,
2013-09-19 17:44:00,74.1,64.9,30.14,East,97,2.1,4.6,73,0.00,CLR,,0.00,WeatherDisplay:10.37,2013-09-19 21:44:00,
2013-09-19 17:45:00,74.1,65.3,30.14,East,97,0.0,3.5,74,0.00,CLR,,0.00,WeatherDisplay:10.37,2013-09-19 21:45:00,
2013-09-19 17:46:00,74.1,65.3,30.14,East,97,0.0,0.0,74,0.00,CLR,,0.00,WeatherDisplay:10.37,2013-09-19 21:46:00,
2013-09-19 17:48:00,74.0,65.2,30.14,East,97,0.0,0.0,74,0.00,CLR,,0.00,WeatherDisplay:10.37,2013-09-19 21:48:00,
2013-09-19 17:49:00,74.1,65.3,30.14,East,97,0.0,0.0,74,0.00,CLR,,0.00,WeatherDisplay:10.37,2013-09-19 21:49:00,
2013-09-19 17:50:00,74.0,65.2,30.14,East,97,0.0,0.0,74,0.00,CLR,,0.00,WeatherDisplay:10.37,2013-09-19 21:50:00,
2013-09-19 17:52:00,73.9,65.1,30.14,East,97,0.0,0.0,74,0.00,CLR,,0.00,WeatherDisplay:10.37,2013-09-19 21:52:00,
2013-09-19 17:54:00,74.0,65.2,30.14,East,97,0.0,0.0,74,0.00,CLR,,0.00,WeatherDisplay:10.37,2013-09-19 21:54:00,
2013-09-19 17:55:00,74.0,65.2,30.14,East,97,0.0,0.0,74,0.00,CLR,,0.00,WeatherDisplay:10.37,2013-09-19 21:55:00,
2013-09-19 17:57:00,73.8,65.4,30.13,SE,136,3.0,5.8,75,0.00,CLR,,0.00,WeatherDisplay:10.37,2013-09-19 21:57:00,
2013-09-19 17:59:00,74.1,65.7,30.13,SE,136,0.0,0.0,75,0.00,CLR,,0.00,WeatherDisplay:10.37,2013-09-19 21:59:00,
2013-09-19 18:00:00,74.1,65.7,30.13,SE,136,0.0,0.0,75,0.00,CLR,,0.00,WeatherDisplay:10.37,2013-09-19 22:00:00,
2013-09-19 18:02:00,74.0,65.6,30.14,East,86,0.5,2.6,75,0.00,CLR,,0.00,WeatherDisplay:10.37,2013-09-19 22:02:00,
2013-09-19 18:05:00,74.0,65.6,30.14,East,86,0.0,0.0,75,0.00,CLR,,0.00,WeatherDisplay:10.37,2013-09-19 22:05:00,
2013-09-19 18:06:00,73.7,65.3,30.14,East,86,0.0,0.0,75,0.00,CLR,,0.00,WeatherDisplay:10.37,2013-09-19 22:06:00,
2013-09-19 18:07:00,74.0,65.6,30.14,East,86,0.0,0.0,75,0.00,CLR,,0.00,WeatherDisplay:10.37,2013-09-19 22:07:00,
2013-09-19 18:10:00,73.9,65.5,30.14,SE,126,0.0,0.0,75,0.00,CLR,,0.00,WeatherDisplay:10.37,2013-09-19 22:10:00,
2013-09-19 18:11:00,74.0,65.6,30.14,SE,126,0.0,0.0,75,0.00,CLR,,0.00,WeatherDisplay:10.37,2013-09-19 22:11:00,
2013-09-19 18:12:00,74.1,65.7,30.13,SE,126,0.0,0.0,75,0.00,CLR,,0.00,WeatherDisplay:10.37,2013-09-19 22:12:00,
2013-09-19 18:15:00,74.1,65.7,30.13,East,79,0.5,4.6,75,0.00,CLR,,0.00,WeatherDisplay:10.37,2013-09-19 22:15:00,
2013-09-19 18:16:00,74.0,65.6,30.13,East,93,1.7,5.8,75,0.00,CLR,,0.00,WeatherDisplay:10.37,2013-09-19 22:16:00,
2013-09-19 18:17:00,74.1,65.7,30.13,East,99,1.7,3.5,75,0.00,CLR,,0.00,WeatherDisplay:10.37,2013-09-19 22:17:00,
2013-09-19 18:20:00,74.0,66.0,30.13,ENE,72,0.0,0.0,76,0.00,CLR,,0.00,WeatherDisplay:10.37,2013-09-19 22:20:00,
2013-09-19 18:21:00,73.8,65.8,30.13,ENE,72,0.0,0.0,76,0.00,CLR,,0.00,WeatherDisplay:10.37,2013-09-19 22:21:00,
2013-09-19 18:22:00,73.8,65.8,30.13,ENE,72,0.0,0.0,76,0.00,CLR,,0.00,WeatherDisplay:10.37,2013-09-19 22:22:00,
2013-09-19 18:25:00,74.1,66.0,30.13,ENE,72,0.0,0.0,76,0.00,CLR,,0.00,WeatherDisplay:10.37,2013-09-19 22:25:00,
2013-09-19 18:26:00,74.0,66.0,30.13,ENE,72,0.0,0.0,76,0.00,CLR,,0.00,WeatherDisplay:10.37,2013-09-19 22:26:00,
2013-09-19 18:27:00,74.0,66.0,30.13,ENE,72,0.0,0.0,76,0.00,CLR,,0.00,WeatherDisplay:10.37,2013-09-19 22:27:00,
2013-09-19 18:30:00,74.0,66.0,30.13,ENE,71,3.4,6.9,76,0.00,CLR,,0.00,WeatherDisplay:10.37,2013-09-19 22:30:00,
2013-09-19 18:31:00,73.9,65.9,30.13,ENE,76,3.5,6.9,76,0.00,CLR,,0.00,WeatherDisplay:10.37,2013-09-19 22:31:00,
2013-09-19 18:32:00,73.8,65.8,30.13,ENE,76,0.1,2.1,76,0.00,CLR,,0.00,WeatherDisplay:10.37,2013-09-19 22:32:00,
2013-09-19 18:33:00,74.0,66.3,30.13,ENE,58,2.6,0.0,77,0.00,CLR,,0.00,WeatherDisplay:10.37,2013-09-19 22:33:00,
2013-09-19 18:35:00,74.0,66.3,30.13,NE,56,0.0,5.8,77,0.00,CLR,,0.00,WeatherDisplay:10.37,2013-09-19 22:35:00,
2013-09-19 18:36:00,73.9,66.2,30.13,NE,56,0.0,0.0,77,0.00,CLR,,0.00,WeatherDisplay:10.37,2013-09-19 22:36:00,
2013-09-19 18:38:00,73.5,65.8,30.13,ENE,58,0.3,0.0,77,0.00,CLR,,0.00,WeatherDisplay:10.37,2013-09-19 22:38:00,
2013-09-19 18:40:00,73.5,65.8,30.13,ENE,58,4.3,5.8,77,0.00,CLR,,0.00,WeatherDisplay:10.37,2013-09-19 22:40:00,
2013-09-19 18:41:00,73.8,66.1,30.13,ENE,58,2.4,4.6,77,0.00,CLR,,0.00,WeatherDisplay:10.37,2013-09-19 22:41:00,
2013-09-19 18:43:00,73.6,66.3,30.13,ENE,61,0.0,0.0,78,0.00,CLR,,0.00,WeatherDisplay:10.37,2013-09-19 22:43:00,
2013-09-19 18:45:00,73.4,66.1,30.13,ENE,61,0.0,0.0,78,0.00,CLR,,0.00,WeatherDisplay:10.37,2013-09-19 22:45:00,
2013-09-19 18:46:00,73.3,66.0,30.13,ENE,61,0.0,0.0,78,0.00,CLR,,0.00,WeatherDisplay:10.37,2013-09-19 22:46:00,
2013-09-19 18:48:00,73.4,66.1,30.13,East,86,3.8,5.8,78,0.00,CLR,,0.00,WeatherDisplay:10.37,2013-09-19 22:48:00,
2013-09-19 18:50:00,73.5,66.2,30.13,East,86,0.0,0.0,78,0.00,CLR,,0.00,WeatherDisplay:10.37,2013-09-19 22:50:00,
2013-09-19 18:51:00,73.4,66.1,30.13,East,86,0.0,0.0,78,0.00,CLR,,0.00,WeatherDisplay:10.37,2013-09-19 22:51:00,
2013-09-19 18:53:00,73.0,65.7,30.14,East,86,0.0,0.0,78,0.00,CLR,,0.00,WeatherDisplay:10.37,2013-09-19 22:53:00,
2013-09-19 18:55:00,73.3,66.0,30.13,East,86,1.5,3.4,78,0.00,CLR,,0.00,WeatherDisplay:10.37,2013-09-19 22:55:00,
2013-09-19 18:56:00,73.4,66.1,30.13,ESE,106,1.7,6.9,78,0.00,CLR,,0.00,WeatherDisplay:10.37,2013-09-19 22:56:00,
2013-09-19 18:58:00,73.0,66.1,30.13,East,96,0.0,0.0,79,0.00,CLR,,0.00,WeatherDisplay:10.37,2013-09-19 22:58:00,
2013-09-19 18:59:00,73.3,66.4,30.13,East,96,0.0,0.0,79,0.00,CLR,,0.00,WeatherDisplay:10.37,2013-09-19 22:59:00,
2013-09-19 19:01:00,72.8,65.9,30.14,East,96,0.0,0.0,79,0.00,CLR,,0.00,WeatherDisplay:10.37,2013-09-19 23:01:00,
2013-09-19 19:02:00,73.1,66.2,30.13,East,96,0.0,0.0,79,0.00,CLR,,0.00,WeatherDisplay:10.37,2013-09-19 23:02:00,
2013-09-19 19:03:00,73.2,66.3,30.13,East,96,0.0,0.0,79,0.00,CLR,,0.00,WeatherDisplay:10.37,2013-09-19 23:03:00,
2013-09-19 19:04:00,73.3,66.4,30.13,East,96,0.0,0.0,79,0.00,CLR,,0.00,WeatherDisplay:10.37,2013-09-19 23:04:00,
2013-09-19 19:06:00,72.9,66.0,30.13,East,96,0.0,0.0,79,0.00,CLR,,0.00,WeatherDisplay:10.37,2013-09-19 23:06:00,
2013-09-19 19:07:00,73.1,66.2,30.14,East,96,0.0,0.0,79,0.00,CLR,,0.00,WeatherDisplay:10.37,2013-09-19 23:07:00,
2013-09-19 19:08:00,72.7,65.8,30.13,East,96,0.0,0.0,79,0.00,CLR,,0.00,WeatherDisplay:10.37,2013-09-19 23:08:00,
2013-09-19 19:09:00,72.7,65.8,30.13,East,96,0.0,0.0,79,0.00,CLR,,0.00,WeatherDisplay:10.37,2013-09-19 23:09:00,
2013-09-19 19:11:00,72.5,65.6,30.13,East,96,0.0,0.0,79,0.00,CLR,,0.00,WeatherDisplay:10.37,2013-09-19 23:11:00,
2013-09-19 19:12:00,72.9,66.0,30.13,ESE,102,2.9,6.9,79,0.00,CLR,,0.00,WeatherDisplay:10.37,2013-09-19 23:12:00,
2013-09-19 19:13:00,72.8,66.3,30.13,ESE,103,4.9,6.9,80,0.00,CLR,,0.00,WeatherDisplay:10.37,2013-09-19 23:13:00,
2013-09-19 19:14:00,72.7,66.2,30.13,SE,131,2.5,6.9,80,0.00,CLR,,0.00,WeatherDisplay:10.37,2013-09-19 23:14:00,
2013-09-19 19:16:00,72.6,66.1,30.13,SE,131,0.0,0.0,80,0.00,CLR,,0.00,WeatherDisplay:10.37,2013-09-19 23:16:00,
2013-09-19 19:18:00,72.4,65.9,30.13,SE,131,0.0,0.0,80,0.00,CLR,,0.00,WeatherDisplay:10.37,2013-09-19 23:18:00,
2013-09-19 19:20:00,72.6,66.1,30.13,ESE,110,0.7,6.7,80,0.00,CLR,,0.00,WeatherDisplay:10.37,2013-09-19 23:20:00,
2013-09-19 19:21:00,72.7,66.2,30.13,ESE,113,2.6,6.9,80,0.00,CLR,,0.00,WeatherDisplay:10.37,2013-09-19 23:21:00,
2013-09-19 19:23:00,72.5,66.0,30.13,ESE,109,0.0,0.0,80,0.00,CLR,,0.00,WeatherDisplay:10.37,2013-09-19 23:23:00,
2013-09-19 19:25:00,72.7,66.2,30.13,ESE,109,0.0,0.0,80,0.00,CLR,,0.00,WeatherDisplay:10.37,2013-09-19 23:25:00,
2013-09-19 19:26:00,72.5,66.3,30.13,ESE,109,0.0,0.0,81,0.00,CLR,,0.00,WeatherDisplay:10.37,2013-09-19 23:26:00,
2013-09-19 19:27:00,72.1,65.9,30.13,ESE,109,0.0,0.0,81,0.00,CLR,,0.00,WeatherDisplay:10.37,2013-09-19 23:27:00,
2013-09-19 19:28:00,71.8,65.7,30.13,ESE,109,0.0,0.0,81,0.00,CLR,,0.00,WeatherDisplay:10.37,2013-09-19 23:28:00,
2013-09-19 19:31:00,72.0,65.8,30.13,ESE,109,0.0,0.0,81,0.00,CLR,,0.00,WeatherDisplay:10.37,2013-09-19 23:31:00,
2013-09-19 19:32:00,72.2,66.0,30.13,ESE,109,0.0,0.0,81,0.00,CLR,,0.00,WeatherDisplay:10.37,2013-09-19 23:32:00,
2013-09-19 19:33:00,72.0,65.8,30.13,ESE,104,4.5,6.9,81,0.00,CLR,,0.00,WeatherDisplay:10.37,2013-09-19 23:33:00,
2013-09-19 19:37:00,71.9,65.8,30.13,East,80,0.8,4.6,81,0.00,CLR,,0.00,WeatherDisplay:10.37,2013-09-19 23:37:00,
2013-09-19 19:38:00,71.9,65.8,30.13,NNE,13,0.0,0.0,81,0.00,CLR,,0.00,WeatherDisplay:10.37,2013-09-19 23:38:00,
2013-09-19 19:39:00,72.0,65.8,30.13,NNE,13,0.0,0.0,81,0.00,CLR,,0.00,WeatherDisplay:10.37,2013-09-19 23:39:00,
2013-09-19 19:42:00,71.4,65.6,30.13,NNE,13,0.0,0.0,82,0.00,CLR,,0.00,WeatherDisplay:10.37,2013-09-19 23:42:00,
2013-09-19 19:44:00,71.5,65.7,30.13,NNE,13,0.0,0.0,82,0.00,CLR,,0.00,WeatherDisplay:10.37,2013-09-19 23:44:00,
2013-09-19 19:47:00,71.7,65.9,30.13,NNE,13,0.0,0.0,82,0.00,CLR,,0.00,WeatherDisplay:10.37,2013-09-19 23:47:00,
2013-09-19 19:48:00,71.5,65.7,30.13,NNE,13,0.0,0.0,82,0.00,CLR,,0.00,WeatherDisplay:10.37,2013-09-19 23:48:00,
2013-09-19 19:49:00,71.3,65.5,30.13,NNE,13,0.0,0.0,82,0.00,CLR,,0.00,WeatherDisplay:10.37,2013-09-19 23:49:00,
2013-09-19 19:52:00,71.6,65.8,30.13,NNE,13,0.0,0.0,82,0.00,CLR,,0.00,WeatherDisplay:10.37,2013-09-19 23:52:00,
2013-09-19 19:53:00,71.5,65.7,30.13,NNE,13,0.0,0.0,82,0.00,CLR,,0.00,WeatherDisplay:10.37,2013-09-19 23:53:00,
2013-09-19 19:54:00,71.1,65.3,30.13,NNE,13,0.0,0.0,82,0.00,CLR,,0.00,WeatherDisplay:10.37,2013-09-19 23:54:00,
2013-09-19 19:57:00,71.6,65.8,30.13,NNE,13,0.0,0.0,82,0.00,CLR,,0.00,WeatherDisplay:10.37,2013-09-19 23:57:00,
2013-09-19 19:58:00,71.4,65.6,30.13,NNE,13,0.0,0.0,82,0.00,CLR,,0.00,WeatherDisplay:10.37,2013-09-19 23:58:00,
2013-09-19 19:59:00,71.1,65.3,30.13,NNE,13,0.0,0.0,82,0.00,CLR,,0.00,WeatherDisplay:10.37,2013-09-19 23:59:00,
2013-09-19 20:03:00,71.1,65.3,30.13,NNE,13,0.0,0.0,82,0.00,CLR,,0.00,WeatherDisplay:10.37,2013-09-20 00:03:00,
2013-09-19 20:04:00,71.6,65.8,30.13,NNE,13,0.0,0.0,82,0.00,CLR,,0.00,WeatherDisplay:10.37,2013-09-20 00:04:00,
2013-09-19 20:08:00,71.1,65.7,30.13,NNE,13,0.0,0.0,83,0.00,CLR,,0.00,WeatherDisplay:10.37,2013-09-20 00:08:00,
2013-09-19 20:09:00,71.5,66.1,30.13,ESE,116,1.8,5.8,83,0.00,CLR,,0.00,WeatherDisplay:10.37,2013-09-20 00:09:00,
2013-09-19 20:13:00,71.4,66.0,30.13,ESE,116,0.0,0.0,83,0.00,CLR,,0.00,WeatherDisplay:10.37,2013-09-20 00:13:00,
2013-09-19 20:14:00,71.3,65.9,30.13,ESE,116,0.0,0.0,83,0.00,CLR,,0.00,WeatherDisplay:10.37,2013-09-20 00:14:00,
2013-09-19 20:15:00,71.1,65.7,30.13,ESE,116,0.0,0.0,83,0.00,CLR,,0.00,WeatherDisplay:10.37,2013-09-20 00:15:00,
2013-09-19 20:18:00,71.1,65.7,30.13,ESE,116,0.0,0.0,83,0.00,CLR,,0.00,WeatherDisplay:10.37,2013-09-20 00:18:00,
2013-09-19 20:19:00,70.9,65.5,30.14,ESE,116,0.0,0.0,83,0.00,CLR,,0.00,WeatherDisplay:10.37,2013-09-20 00:19:00,
2013-09-19 20:20:00,70.7,65.3,30.14,ESE,116,0.0,0.0,83,0.00,CLR,,0.00,WeatherDisplay:10.37,2013-09-20 00:20:00,
2013-09-19 20:24:00,70.9,65.8,30.14,ESE,116,0.0,0.0,84,0.00,CLR,,0.00,WeatherDisplay:10.37,2013-09-20 00:24:00,
2013-09-19 20:25:00,70.8,65.7,30.14,ESE,116,0.0,0.0,84,0.00,CLR,,0.00,WeatherDisplay:10.37,2013-09-20 00:25:00,
2013-09-19 20:29:00,71.2,66.1,30.13,ESE,116,0.0,0.0,84,0.00,CLR,,0.00,WeatherDisplay:10.37,2013-09-20 00:29:00,
2013-09-19 20:30:00,70.8,65.7,30.13,ESE,116,0.0,0.0,84,0.00,CLR,,0.00,WeatherDisplay:10.37,2013-09-20 00:30:00,
2013-09-19 20:34:00,70.7,65.6,30.13,ESE,116,0.0,0.0,84,0.00,CLR,,0.00,WeatherDisplay:10.37,2013-09-20 00:34:00,
2013-09-19 20:35:00,70.7,65.6,30.13,ESE,116,0.0,0.0,84,0.00,CLR,,0.00,WeatherDisplay:10.37,2013-09-20 00:35:00,
2013-09-19 20:36:00,70.9,65.8,30.13,ESE,116,0.0,0.0,84,0.00,CLR,,0.00,WeatherDisplay:10.37,2013-09-20 00:36:00,
2013-09-19 20:39:00,70.8,65.7,30.14,ESE,116,0.0,0.0,84,0.00,CLR,,0.00,WeatherDisplay:10.37,2013-09-20 00:39:00,
2013-09-19 20:40:00,70.5,65.4,30.14,ESE,116,0.0,0.0,84,0.00,CLR,,0.00,WeatherDisplay:10.37,2013-09-20 00:40:00,
2013-09-19 20:41:00,70.5,65.4,30.14,ESE,116,0.0,0.0,84,0.00,CLR,,0.00,WeatherDisplay:10.37,2013-09-20 00:41:00,
2013-09-19 20:44:00,70.5,65.4,30.14,ESE,116,0.0,0.0,84,0.00,CLR,,0.00,WeatherDisplay:10.37,2013-09-20 00:44:00,
2013-09-19 20:45:00,70.6,65.5,30.14,ESE,116,0.0,0.0,84,0.00,CLR,,0.00,WeatherDisplay:10.37,2013-09-20 00:45:00,
2013-09-19 20:46:00,70.7,65.6,30.14,ESE,116,0.0,0.0,84,0.00,CLR,,0.00,WeatherDisplay:10.37,2013-09-20 00:46:00,
2013-09-19 20:47:00,70.5,65.4,30.13,ESE,116,0.0,0.0,84,0.00,CLR,,0.00,WeatherDisplay:10.37,2013-09-20 00:47:00,
2013-09-19 20:49:00,70.8,65.7,30.13,ESE,116,0.0,0.0,84,0.00,CLR,,0.00,WeatherDisplay:10.37,2013-09-20 00:49:00,
2013-09-19 20:50:00,70.6,65.5,30.13,ESE,116,0.0,0.0,84,0.00,CLR,,0.00,WeatherDisplay:10.37,2013-09-20 00:50:00,
2013-09-19 20:51:00,70.5,65.4,30.13,ESE,116,0.0,0.0,84,0.00,CLR,,0.00,WeatherDisplay:10.37,2013-09-20 00:51:00,
2013-09-19 20:52:00,70.6,65.5,30.13,ESE,116,0.0,0.0,84,0.00,CLR,,0.00,WeatherDisplay:10.37,2013-09-20 00:52:00,
2013-09-19 20:54:00,70.8,65.7,30.14,ESE,116,0.0,0.0,84,0.00,CLR,,0.00,WeatherDisplay:10.37,2013-09-20 00:54:00,
2013-09-19 20:56:00,70.8,66.1,30.13,ESE,116,0.0,0.0,85,0.00,CLR,,0.00,WeatherDisplay:10.37,2013-09-20 00:56:00,
2013-09-19 20:58:00,70.7,66.0,30.13,ESE,116,0.0,0.0,85,0.00,CLR,,0.00,WeatherDisplay:10.37,2013-09-20 00:58:00,
2013-09-19 20:59:00,70.5,65.8,30.13,ESE,116,0.0,0.0,85,0.00,CLR,,0.00,WeatherDisplay:10.37,2013-09-20 00:59:00,
2013-09-19 21:01:00,70.5,65.8,30.13,ESE,116,0.0,0.0,85,0.00,CLR,,0.00,WeatherDisplay:10.37,2013-09-20 01:01:00,
2013-09-19 21:03:00,70.3,65.6,30.14,ESE,116,0.0,0.0,85,0.00,CLR,,0.00,WeatherDisplay:10.37,2013-09-20 01:03:00,
2013-09-19 21:04:00,70.5,65.8,30.14,ESE,116,0.0,0.0,85,0.00,CLR,,0.00,WeatherDisplay:10.37,2013-09-20 01:04:00,
2013-09-19 21:06:00,70.4,65.7,30.14,ESE,116,0.0,0.0,85,0.00,CLR,,0.00,WeatherDisplay:10.37,2013-09-20 01:06:00,
2013-09-19 21:07:00,70.3,65.6,30.14,ESE,116,0.0,0.0,85,0.00,CLR,,0.00,WeatherDisplay:10.37,2013-09-20 01:07:00,
2013-09-19 21:08:00,70.4,65.7,30.14,ESE,116,0.0,0.0,85,0.00,CLR,,0.00,WeatherDisplay:10.37,2013-09-20 01:08:00,
2013-09-19 21:09:00,70.3,65.6,30.14,ESE,116,0.0,0.0,85,0.00,CLR,,0.00,WeatherDisplay:10.37,2013-09-20 01:09:00,
2013-09-19 21:11:00,70.7,66.0,30.13,ESE,116,0.0,0.0,85,0.00,CLR,,0.00,WeatherDisplay:10.37,2013-09-20 01:11:00,
2013-09-19 21:12:00,70.4,65.7,30.13,ESE,116,0.0,0.0,85,0.00,CLR,,0.00,WeatherDisplay:10.37,2013-09-20 01:12:00,
2013-09-19 21:13:00,69.9,65.2,30.13,ENE,65,1.2,3.1,85,0.00,CLR,,0.00,WeatherDisplay:10.37,2013-09-20 01:13:00,
2013-09-19 21:14:00,70.0,65.3,30.13,ENE,65,0.0,5.8,85,0.00,CLR,,0.00,WeatherDisplay:10.37,2013-09-20 01:14:00,
2013-09-19 21:16:00,70.4,65.7,30.13,ENE,65,0.0,0.0,85,0.00,CLR,,0.00,WeatherDisplay:10.37,2013-09-20 01:16:00,
2013-09-19 21:17:00,70.4,65.7,30.13,ENE,65,0.0,0.0,85,0.00,CLR,,0.00,WeatherDisplay:10.37,2013-09-20 01:17:00,
2013-09-19 21:18:00,70.5,65.8,30.14,ENE,65,0.0,0.0,85,0.00,CLR,,0.00,WeatherDisplay:10.37,2013-09-20 01:18:00,
2013-09-19 21:19:00,70.4,65.7,30.14,ENE,65,0.0,0.0,85,0.00,CLR,,0.00,WeatherDisplay:10.37,2013-09-20 01:19:00,
2013-09-19 21:21:00,70.6,65.9,30.14,ENE,65,0.0,0.0,85,0.00,CLR,,0.00,WeatherDisplay:10.37,2013-09-20 01:21:00,
2013-09-19 21:22:00,70.5,65.8,30.14,ENE,65,0.0,0.0,85,0.00,CLR,,0.00,WeatherDisplay:10.37,2013-09-20 01:22:00,
2013-09-19 21:24:00,70.4,65.7,30.14,ENE,65,0.0,0.0,85,0.00,CLR,,0.00,WeatherDisplay:10.37,2013-09-20 01:24:00,
2013-09-19 21:26:00,70.4,65.7,30.13,ENE,65,0.0,0.0,85,0.00,CLR,,0.00,WeatherDisplay:10.37,2013-09-20 01:26:00,
2013-09-19 21:27:00,70.3,65.6,30.13,ENE,65,0.0,0.0,85,0.00,CLR,,0.00,WeatherDisplay:10.37,2013-09-20 01:27:00,
2013-09-19 21:29:00,70.2,65.5,30.13,ESE,116,2.8,8.1,85,0.00,CLR,,0.00,WeatherDisplay:10.37,2013-09-20 01:29:00,
2013-09-19 21:30:00,70.8,66.1,30.14,East,82,2.5,8.1,85,0.00,CLR,,0.00,WeatherDisplay:10.37,2013-09-20 01:30:00,
2013-09-19 21:32:00,70.7,66.0,30.13,East,82,0.0,0.0,85,0.00,CLR,,0.00,WeatherDisplay:10.37,2013-09-20 01:32:00,
2013-09-19 21:33:00,70.2,65.5,30.14,East,82,0.0,0.0,85,0.00,CLR,,0.00,WeatherDisplay:10.37,2013-09-20 01:33:00,
2013-09-19 21:34:00,70.9,66.2,30.14,East,82,0.0,0.0,85,0.00,CLR,,0.00,WeatherDisplay:10.37,2013-09-20 01:34:00,
2013-09-19 21:35:00,70.5,65.8,30.14,East,82,0.0,0.0,85,0.00,CLR,,0.00,WeatherDisplay:10.37,2013-09-20 01:35:00,
2013-09-19 21:37:00,70.6,65.9,30.13,East,82,0.0,0.0,85,0.00,CLR,,0.00,WeatherDisplay:10.37,2013-09-20 01:37:00,
2013-09-19 21:39:00,70.5,65.8,30.14,East,82,0.0,0.0,85,0.00,CLR,,0.00,WeatherDisplay:10.37,2013-09-20 01:39:00,
2013-09-19 21:40:00,70.4,65.7,30.13,East,82,0.0,0.0,85,0.00,CLR,,0.00,WeatherDisplay:10.37,2013-09-20 01:40:00,
2013-09-19 21:42:00,70.3,65.9,30.13,East,82,0.0,0.0,86,0.00,CLR,,0.00,WeatherDisplay:10.37,2013-09-20 01:42:00,
2013-09-19 21:43:00,70.4,66.0,30.13,East,82,0.0,0.0,86,0.00,CLR,,0.00,WeatherDisplay:10.37,2013-09-20 01:43:00,
2013-09-19 21:44:00,70.1,65.7,30.13,East,82,0.0,0.0,86,0.00,CLR,,0.00,WeatherDisplay:10.37,2013-09-20 01:44:00,
2013-09-19 21:45:00,70.5,66.1,30.13,East,82,0.0,0.0,86,0.00,CLR,,0.00,WeatherDisplay:10.37,2013-09-20 01:45:00,
2013-09-19 21:47:00,69.7,65.3,30.13,East,82,0.0,0.0,86,0.00,CLR,,0.00,WeatherDisplay:10.37,2013-09-20 01:47:00,
2013-09-19 21:48:00,70.1,65.7,30.13,East,82,0.0,0.0,86,0.00,CLR,,0.00,WeatherDisplay:10.37,2013-09-20 01:48:00,
2013-09-19 21:49:00,69.7,65.3,30.13,East,82,0.0,0.0,86,0.00,CLR,,0.00,WeatherDisplay:10.37,2013-09-20 01:49:00,
2013-09-19 21:50:00,70.4,66.0,30.13,East,82,0.0,0.0,86,0.00,CLR,,0.00,WeatherDisplay:10.37,2013-09-20 01:50:00,
2013-09-19 21:52:00,70.0,65.6,30.13,East,82,0.0,0.0,86,0.00,CLR,,0.00,WeatherDisplay:10.37,2013-09-20 01:52:00,
2013-09-19 21:53:00,70.1,65.7,30.13,East,82,0.0,0.0,86,0.00,CLR,,0.00,WeatherDisplay:10.37,2013-09-20 01:53:00,
2013-09-19 21:54:00,70.0,65.6,30.13,East,82,0.0,0.0,86,0.00,CLR,,0.00,WeatherDisplay:10.37,2013-09-20 01:54:00,
2013-09-19 21:55:00,69.7,65.3,30.13,East,82,0.0,0.0,86,0.00,CLR,,0.00,WeatherDisplay:10.37,2013-09-20 01:55:00,
2013-09-19 21:57:00,69.8,65.4,30.13,East,82,0.0,0.0,86,0.00,CLR,,0.00,WeatherDisplay:10.37,2013-09-20 01:57:00,
2013-09-19 21:58:00,69.9,65.5,30.13,East,82,0.0,0.0,86,0.00,CLR,,0.00,WeatherDisplay:10.37,2013-09-20 01:58:00,
2013-09-19 21:59:00,69.8,65.4,30.13,East,82,0.9,3.4,86,0.00,CLR,,0.00,WeatherDisplay:10.37,2013-09-20 01:59:00,
2013-09-19 22:00:00,69.7,65.3,30.13,East,82,1.3,5.8,86,0.00,CLR,,0.00,WeatherDisplay:10.37,2013-09-20 02:00:00,
2013-09-19 22:03:00,69.9,65.5,30.13,East,82,0.0,0.0,86,0.00,CLR,,0.00,WeatherDisplay:10.37,2013-09-20 02:03:00,
2013-09-19 22:05:00,69.4,65.0,30.13,East,92,5.5,6.9,86,0.00,CLR,,0.00,WeatherDisplay:10.37,2013-09-20 02:05:00,
2013-09-19 22:08:00,69.4,65.0,30.13,SE,126,2.6,6.9,86,0.00,CLR,,0.00,WeatherDisplay:10.37,2013-09-20 02:08:00,
2013-09-19 22:10:00,69.8,65.4,30.13,ENE,61,4.7,6.1,86,0.00,CLR,,0.00,WeatherDisplay:10.37,2013-09-20 02:10:00,
2013-09-19 22:13:00,69.4,65.0,30.13,ENE,72,4.4,6.9,86,0.00,CLR,,0.00,WeatherDisplay:10.37,2013-09-20 02:13:00,
2013-09-19 22:14:00,69.8,65.4,30.13,East,96,2.4,5.8,86,0.00,CLR,,0.00,WeatherDisplay:10.37,2013-09-20 02:14:00,
2013-09-19 22:15:00,69.5,65.1,30.13,ESE,112,0.6,6.4,86,0.00,CLR,,0.00,WeatherDisplay:10.37,2013-09-20 02:15:00,
2013-09-19 22:16:00,69.7,65.7,30.13,SE,144,3.8,4.8,87,0.00,CLR,,0.00,WeatherDisplay:10.37,2013-09-20 02:16:00,
2013-09-19 22:18:00,69.4,65.4,30.13,SE,131,1.0,3.2,87,0.00,CLR,,0.00,WeatherDisplay:10.37,2013-09-20 02:18:00,
2013-09-19 22:20:00,69.5,65.5,30.13,ESE,117,4.1,6.3,87,0.00,CLR,,0.00,WeatherDisplay:10.37,2013-09-20 02:20:00,
2013-09-19 22:21:00,69.5,65.5,30.13,East,95,4.7,6.9,87,0.00,CLR,,0.00,WeatherDisplay:10.37,2013-09-20 02:21:00,
2013-09-19 22:24:00,69.8,65.8,30.13,ENE,68,0.0,0.0,87,0.00,CLR,,0.00,WeatherDisplay:10.37,2013-09-20 02:24:00,
2013-09-19 22:25:00,69.8,65.8,30.13,ENE,68,0.0,0.0,87,0.00,CLR,,0.00,WeatherDisplay:10.37,2013-09-20 02:25:00,
2013-09-19 22:26:00,69.5,65.5,30.13,East,99,0.8,5.4,87,0.00,CLR,,0.00,WeatherDisplay:10.37,2013-09-20 02:26:00,
2013-09-19 22:29:00,69.8,65.8,30.13,East,93,1.3,0.0,87,0.00,CLR,,0.00,WeatherDisplay:10.37,2013-09-20 02:29:00,
2013-09-19 22:30:00,69.5,65.5,30.13,East,93,0.0,0.0,87,0.00,CLR,,0.00,WeatherDisplay:10.37,2013-09-20 02:30:00,
2013-09-19 22:31:00,69.3,65.3,30.13,East,93,0.0,0.0,87,0.00,CLR,,0.00,WeatherDisplay:10.37,2013-09-20 02:31:00,
2013-09-19 22:32:00,69.4,65.4,30.13,East,93,0.0,0.0,87,0.00,CLR,,0.00,WeatherDisplay:10.37,2013-09-20 02:32:00,
2013-09-19 22:34:00,69.4,65.4,30.13,East,93,0.0,0.0,87,0.00,CLR,,0.00,WeatherDisplay:10.37,2013-09-20 02:34:00,
2013-09-19 22:35:00,69.7,65.7,30.13,East,93,0.2,3.5,87,0.00,CLR,,0.00,WeatherDisplay:10.37,2013-09-20 02:35:00,
2013-09-19 22:36:00,69.4,65.4,30.13,East,93,0.6,0.0,87,0.00,CLR,,0.00,WeatherDisplay:10.37,2013-09-20 02:36:00,
2013-09-19 22:37:00,69.5,65.5,30.13,East,93,0.0,0.0,87,0.00,CLR,,0.00,WeatherDisplay:10.37,2013-09-20 02:37:00,
2013-09-19 22:39:00,69.6,65.6,30.12,East,93,0.0,0.0,87,0.00,CLR,,0.00,WeatherDisplay:10.37,2013-09-20 02:39:00,
2013-09-19 22:40:00,69.3,65.3,30.12,East,93,0.0,0.0,87,0.00,CLR,,0.00,WeatherDisplay:10.37,2013-09-20 02:40:00,
2013-09-19 22:41:00,69.7,65.7,30.13,East,93,0.0,0.0,87,0.00,CLR,,0.00,WeatherDisplay:10.37,2013-09-20 02:41:00,
2013-09-19 22:42:00,69.5,65.5,30.13,East,93,0.0,0.0,87,0.00,CLR,,0.00,WeatherDisplay:10.37,2013-09-20 02:42:00,
2013-09-19 22:44:00,69.2,65.2,30.12,East,93,0.0,0.0,87,0.00,CLR,,0.00,WeatherDisplay:10.37,2013-09-20 02:44:00,
2013-09-19 22:45:00,69.6,65.6,30.12,East,93,0.0,0.0,87,0.00,CLR,,0.00,WeatherDisplay:10.37,2013-09-20 02:45:00,
2013-09-19 22:46:00,69.6,65.6,30.12,East,93,0.0,0.0,87,0.00,CLR,,0.00,WeatherDisplay:10.37,2013-09-20 02:46:00,
2013-09-19 22:47:00,69.5,65.5,30.12,East,93,0.0,0.0,87,0.00,CLR,,0.00,WeatherDisplay:10.37,2013-09-20 02:47:00,
2013-09-19 22:50:00,69.7,65.7,30.12,East,93,0.0,0.0,87,0.00,CLR,,0.00,WeatherDisplay:10.37,2013-09-20 02:50:00,
2013-09-19 22:51:00,69.5,65.5,30.12,East,93,0.0,0.0,87,0.00,CLR,,0.00,WeatherDisplay:10.37,2013-09-20 02:51:00,
2013-09-19 22:52:00,69.3,65.3,30.12,East,93,0.0,0.0,87,0.00,CLR,,0.00,WeatherDisplay:10.37,2013-09-20 02:52:00,
2013-09-19 22:55:00,69.0,65.0,30.12,East,93,0.0,0.0,87,0.00,CLR,,0.00,WeatherDisplay:10.37,2013-09-20 02:55:00,
2013-09-19 22:56:00,69.4,65.4,30.12,ENE,78,2.5,0.0,87,0.00,CLR,,0.00,WeatherDisplay:10.37,2013-09-20 02:56:00,
2013-09-19 22:57:00,69.5,65.5,30.12,ENE,78,2.5,0.0,87,0.00,CLR,,0.00,WeatherDisplay:10.37,2013-09-20 02:57:00,
2013-09-19 23:00:00,69.3,65.3,30.12,ENE,78,0.0,0.0,87,0.00,CLR,,0.00,WeatherDisplay:10.37,2013-09-20 03:00:00,
2013-09-19 23:02:00,69.5,65.5,30.12,ENE,78,0.0,0.0,87,0.00,CLR,,0.00,WeatherDisplay:10.37,2013-09-20 03:02:00,
2013-09-19 23:05:00,69.4,65.4,30.12,ENE,78,0.0,0.0,87,0.00,CLR,,0.00,WeatherDisplay:10.37,2013-09-20 03:05:00,
2013-09-19 23:07:00,69.5,65.5,30.12,ENE,78,0.0,0.0,87,0.00,CLR,,0.00,WeatherDisplay:10.37,2013-09-20 03:07:00,
2013-09-19 23:08:00,69.4,65.4,30.12,ENE,78,0.0,0.0,87,0.00,CLR,,0.00,WeatherDisplay:10.37,2013-09-20 03:08:00,
2013-09-19 23:10:00,69.4,65.4,30.12,ENE,78,0.0,0.0,87,0.00,CLR,,0.00,WeatherDisplay:10.37,2013-09-20 03:10:00,
2013-09-19 23:11:00,69.1,65.1,30.12,ENE,78,0.0,0.0,87,0.00,CLR,,0.00,WeatherDisplay:10.37,2013-09-20 03:11:00,
2013-09-19 23:12:00,69.5,65.5,30.12,East,95,0.1,4.4,87,0.00,CLR,,0.00,WeatherDisplay:10.37,2013-09-20 03:12:00,
2013-09-19 23:14:00,69.3,65.3,30.12,East,83,1.4,5.8,87,0.00,CLR,,0.00,WeatherDisplay:10.37,2013-09-20 03:14:00,
2013-09-19 23:15:00,69.2,65.2,30.12,East,83,0.0,0.0,87,0.00,CLR,,0.00,WeatherDisplay:10.37,2013-09-20 03:15:00,
2013-09-19 23:16:00,69.5,65.5,30.12,ENE,68,0.7,3.5,87,0.00,CLR,,0.00,WeatherDisplay:10.37,2013-09-20 03:16:00,
2013-09-19 23:17:00,69.4,65.4,30.12,ENE,68,0.0,3.5,87,0.00,CLR,,0.00,WeatherDisplay:10.37,2013-09-20 03:17:00,
2013-09-19 23:18:00,69.6,65.6,30.12,ENE,68,0.0,3.5,87,0.00,CLR,,0.00,WeatherDisplay:10.37,2013-09-20 03:18:00,
2013-09-19 23:19:00,69.5,65.5,30.12,ENE,68,0.0,0.0,87,0.00,CLR,,0.00,WeatherDisplay:10.37,2013-09-20 03:19:00,
2013-09-19 23:20:00,69.6,65.6,30.12,ENE,68,0.0,0.0,87,0.00,CLR,,0.00,WeatherDisplay:10.37,2013-09-20 03:20:00,
2013-09-19 23:21:00,69.2,65.2,30.12,ENE,68,0.0,0.0,87,0.00,CLR,,0.00,WeatherDisplay:10.37,2013-09-20 03:21:00,
2013-09-19 23:23:00,69.4,65.4,30.12,ENE,68,0.0,0.0,87,0.00,CLR,,0.00,WeatherDisplay:10.37,2013-09-20 03:23:00,
2013-09-19 23:24:00,69.3,65.3,30.12,ENE,68,0.0,0.0,87,0.00,CLR,,0.00,WeatherDisplay:10.37,2013-09-20 03:24:00,
2013-09-19 23:25:00,69.5,65.5,30.12,ENE,68,0.0,0.0,87,0.00,CLR,,0.00,WeatherDisplay:10.37,2013-09-20 03:25:00,
2013-09-19 23:26:00,69.1,65.1,30.12,ENE,68,0.0,0.0,87,0.00,CLR,,0.00,WeatherDisplay:10.37,2013-09-20 03:26:00,
2013-09-19 23:28:00,69.4,65.4,30.12,ENE,68,0.0,0.0,87,0.00,CLR,,0.00,WeatherDisplay:10.37,2013-09-20 03:28:00,
2013-09-19 23:29:00,69.5,65.5,30.12,ENE,68,0.0,0.0,87,0.00,CLR,,0.00,WeatherDisplay:10.37,2013-09-20 03:29:00,
2013-09-19 23:31:00,69.0,65.0,30.12,ENE,68,0.0,0.0,87,0.00,CLR,,0.00,WeatherDisplay:10.37,2013-09-20 03:31:00,
2013-09-19 23:33:00,69.2,65.2,30.12,ENE,68,0.0,0.0,87,0.00,CLR,,0.00,WeatherDisplay:10.37,2013-09-20 03:33:00,
2013-09-19 23:34:00,69.1,65.1,30.12,ENE,68,0.0,0.0,87,0.00,CLR,,0.00,WeatherDisplay:10.37,2013-09-20 03:34:00,
2013-09-19 23:36:00,69.2,65.2,30.12,ENE,68,0.0,0.0,87,0.00,CLR,,0.00,WeatherDisplay:10.37,2013-09-20 03:36:00,
2013-09-19 23:38:00,69.2,65.2,30.13,ENE,68,0.0,0.0,87,0.00,CLR,,0.00,WeatherDisplay:10.37,2013-09-20 03:38:00,
2013-09-19 23:41:00,69.4,65.4,30.13,ENE,68,0.0,0.0,87,0.00,CLR,,0.00,WeatherDisplay:10.37,2013-09-20 03:41:00,
2013-09-19 23:42:00,69.4,65.4,30.13,ENE,68,0.0,0.0,87,0.00,CLR,,0.00,WeatherDisplay:10.37,2013-09-20 03:42:00,
2013-09-19 23:43:00,69.0,65.0,30.13,ENE,68,0.0,0.0,87,0.00,CLR,,0.00,WeatherDisplay:10.37,2013-09-20 03:43:00,
2013-09-19 23:46:00,69.6,65.6,30.13,ENE,68,0.0,0.0,87,0.00,CLR,,0.00,WeatherDisplay:10.37,2013-09-20 03:46:00,
2013-09-19 23:47:00,69.1,65.1,30.13,ENE,68,0.0,0.0,87,0.00,CLR,,0.00,WeatherDisplay:10.37,2013-09-20 03:47:00,
2013-09-19 23:48:00,69.1,65.1,30.13,ENE,68,0.0,0.0,87,0.00,CLR,,0.00,WeatherDisplay:10.37,2013-09-20 03:48:00,
2013-09-19 23:51:00,69.2,65.2,30.13,ESE,121,0.0,0.0,87,0.00,CLR,,0.00,WeatherDisplay:10.37,2013-09-20 03:51:00,
2013-09-19 23:52:00,69.4,65.4,30.13,ESE,121,0.0,0.0,87,0.00,CLR,,0.00,WeatherDisplay:10.37,2013-09-20 03:52:00,
2013-09-19 23:53:00,69.1,65.1,30.13,ESE,121,0.0,0.0,87,0.00,CLR,,0.00,WeatherDisplay:10.37,2013-09-20 03:53:00,
2013-09-19 23:56:00,69.2,65.2,30.13,ESE,121,0.0,0.0,87,0.00,CLR,,0.00,WeatherDisplay:10.37,2013-09-20 03:56:00,
2013-09-19 23:57:00,69.2,65.2,30.13,ESE,121,0.0,0.0,87,0.00,CLR,,0.00,WeatherDisplay:10.37,2013-09-20 03:57:00,
2013-09-19 23:58:00,69.2,65.2,30.13,ESE,121,0.0,0.0,87,0.00,CLR,,0.00,WeatherDisplay:10.37,2013-09-20 03:58:00,